Time,TemperatureF,DewpointF,PressureIn,WindDirection,WindDirectionDegrees,WindSpeedMPH,WindSpeedGustMPH,Humidity,HourlyPrecipIn,Conditions,Clouds,dailyrainin,SolarRadiationWatts/m^2,SoftwareType,DateUTC
2013-01-18 00:02:00,56.1,18.8,30.16,NNW,337,5.0,6.0,23,0.00,,,0.00,0,WeatherHawk,2013-01-18 07:02:00,
2013-01-18 00:05:00,55.9,19.7,30.16,NNW,333,4.0,6.0,24,0.00,,,0.00,0,WeatherHawk,2013-01-18 07:05:00,
2013-01-18 00:07:00,55.8,19.5,30.16,NNW,332,5.0,6.0,24,0.00,,,0.00,0,WeatherHawk,2013-01-18 07:07:00,
2013-01-18 00:09:00,55.6,19.4,30.16,NW,314,5.0,5.0,24,0.00,,,0.00,0,WeatherHawk,2013-01-18 07:09:00,
2013-01-18 00:11:00,55.0,19.9,30.16,NW,319,4.0,5.0,25,0.00,,,0.00,0,WeatherHawk,2013-01-18 07:11:00,
2013-01-18 00:12:00,54.9,19.7,30.16,NNW,328,5.0,5.0,25,0.00,,,0.00,0,WeatherHawk,2013-01-18 07:12:00,
2013-01-18 00:14:00,54.7,19.6,30.16,NW,318,5.0,5.0,25,0.00,,,0.00,0,WeatherHawk,2013-01-18 07:14:00,
2013-01-18 00:17:00,54.7,19.6,30.16,NW,313,5.0,-999.0,25,0.00,,,0.00,0,WeatherHawk,2013-01-18 07:17:00,
2013-01-18 00:18:00,54.7,19.6,30.16,NW,310,5.0,6.0,25,0.00,,,0.00,0,WeatherHawk,2013-01-18 07:18:00,
2013-01-18 00:20:00,54.7,20.5,30.17,WNW,303,4.0,6.0,26,0.00,,,0.00,1,WeatherHawk,2013-01-18 07:20:00,
2013-01-18 00:21:00,54.3,20.2,30.17,WNW,293,5.0,6.0,26,0.00,,,0.00,0,WeatherHawk,2013-01-18 07:21:00,
2013-01-18 00:25:00,53.2,21.0,30.17,NW,310,4.0,6.0,28,0.00,,,0.00,0,WeatherHawk,2013-01-18 07:25:00,
2013-01-18 00:26:00,53.2,20.1,30.17,NW,308,4.0,6.0,27,0.00,,,0.00,1,WeatherHawk,2013-01-18 07:26:00,
2013-01-18 00:27:00,53.2,20.1,30.17,NW,308,4.0,6.0,27,0.00,,,0.00,1,WeatherHawk,2013-01-18 07:27:00,
2013-01-18 00:28:00,53.2,20.1,30.17,NW,304,4.0,6.0,27,0.00,,,0.00,0,WeatherHawk,2013-01-18 07:28:00,
2013-01-18 00:32:00,53.4,20.3,30.17,NW,310,5.0,-999.0,27,0.00,,,0.00,0,WeatherHawk,2013-01-18 07:32:00,
2013-01-18 00:34:00,53.6,20.4,30.17,NW,324,4.0,6.0,27,0.00,,,0.00,0,WeatherHawk,2013-01-18 07:34:00,
2013-01-18 00:37:00,53.6,20.4,30.17,NW,315,4.0,6.0,27,0.00,,,0.00,0,WeatherHawk,2013-01-18 07:37:00,
2013-01-18 00:42:00,53.4,20.3,30.17,NNW,330,4.0,-999.0,27,0.00,,,0.00,0,WeatherHawk,2013-01-18 07:42:00,
2013-01-18 00:43:00,53.6,20.4,30.17,NW,319,4.0,6.0,27,0.00,,,0.00,0,WeatherHawk,2013-01-18 07:43:00,
2013-01-18 00:47:00,53.2,21.0,30.17,NW,304,4.0,6.0,28,0.00,,,0.00,0,WeatherHawk,2013-01-18 07:47:00,
2013-01-18 00:48:00,53.2,20.1,30.17,NW,309,4.0,5.0,27,0.00,,,0.00,0,WeatherHawk,2013-01-18 07:48:00,
2013-01-18 00:50:00,53.1,20.8,30.17,WNW,289,3.0,5.0,28,0.00,,,0.00,0,WeatherHawk,2013-01-18 07:50:00,
2013-01-18 00:52:00,52.9,20.7,30.17,NW,309,3.0,5.0,28,0.00,,,0.00,0,WeatherHawk,2013-01-18 07:52:00,
2013-01-18 00:55:00,52.7,20.5,30.17,NW,306,4.0,5.0,28,0.00,,,0.00,0,WeatherHawk,2013-01-18 07:55:00,
2013-01-18 00:56:00,52.7,20.5,30.17,WNW,301,4.0,5.0,28,0.00,,,0.00,0,WeatherHawk,2013-01-18 07:56:00,
2013-01-18 00:57:00,52.7,20.5,30.17,WNW,301,4.0,5.0,28,0.00,,,0.00,0,WeatherHawk,2013-01-18 07:57:00,
2013-01-18 00:59:00,52.3,20.2,30.17,NW,304,3.0,5.0,28,0.00,,,0.00,0,WeatherHawk,2013-01-18 07:59:00,
2013-01-18 01:01:00,52.3,20.2,30.17,NW,314,4.0,5.0,28,0.00,,,0.00,0,WeatherHawk,2013-01-18 08:01:00,
2013-01-18 01:02:00,52.3,20.2,30.17,NW,314,4.0,5.0,28,0.00,,,0.00,0,WeatherHawk,2013-01-18 08:02:00,
2013-01-18 01:07:00,52.3,21.0,30.17,WNW,290,3.0,5.0,29,0.00,,,0.00,0,WeatherHawk,2013-01-18 08:07:00,
2013-01-18 01:08:00,52.0,20.7,30.17,WNW,287,4.0,4.0,29,0.00,,,0.00,1,WeatherHawk,2013-01-18 08:08:00,
2013-01-18 01:09:00,51.8,20.6,30.17,WNW,285,4.0,4.0,29,0.00,,,0.00,0,WeatherHawk,2013-01-18 08:09:00,
2013-01-18 01:12:00,51.6,21.2,30.17,West,279,4.0,4.0,30,0.00,,,0.00,0,WeatherHawk,2013-01-18 08:12:00,
2013-01-18 01:15:00,51.3,20.9,30.17,West,281,4.0,4.0,30,0.00,,,0.00,1,WeatherHawk,2013-01-18 08:15:00,
2013-01-18 01:17:00,51.3,20.1,30.17,WNW,282,3.0,4.0,29,0.00,,,0.00,0,WeatherHawk,2013-01-18 08:17:00,
2013-01-18 01:22:00,50.9,20.6,30.17,WNW,289,3.0,-999.0,30,0.00,,,0.00,0,WeatherHawk,2013-01-18 08:22:00,
2013-01-18 01:23:00,50.9,19.8,30.17,WNW,302,3.0,4.0,29,0.00,,,0.00,0,WeatherHawk,2013-01-18 08:23:00,
2013-01-18 01:24:00,50.9,19.8,30.17,NW,309,3.0,4.0,29,0.00,,,0.00,0,WeatherHawk,2013-01-18 08:24:00,
2013-01-18 01:25:00,51.1,19.9,30.17,NW,318,3.0,4.0,29,0.00,,,0.00,0,WeatherHawk,2013-01-18 08:25:00,
2013-01-18 01:29:00,52.2,20.1,30.17,NNW,335,3.0,4.0,28,0.00,,,0.00,0,WeatherHawk,2013-01-18 08:29:00,
2013-01-18 01:30:00,52.3,20.2,30.17,NNW,332,3.0,4.0,28,0.00,,,0.00,0,WeatherHawk,2013-01-18 08:30:00,
2013-01-18 01:31:00,52.5,19.5,30.17,NNW,330,3.0,4.0,27,0.00,,,0.00,0,WeatherHawk,2013-01-18 08:31:00,
2013-01-18 01:36:00,53.2,19.3,30.17,NNW,338,4.0,4.0,26,0.00,,,0.00,0,WeatherHawk,2013-01-18 08:36:00,
2013-01-18 01:37:00,53.2,19.3,30.17,NNW,338,4.0,4.0,26,0.00,,,0.00,0,WeatherHawk,2013-01-18 08:37:00,
2013-01-18 01:42:00,53.4,19.4,30.17,NNW,347,5.0,5.0,26,0.00,,,0.00,1,WeatherHawk,2013-01-18 08:42:00,
2013-01-18 01:47:00,53.6,19.6,30.17,NNW,347,6.0,6.0,26,0.00,,,0.00,0,WeatherHawk,2013-01-18 08:47:00,
2013-01-18 01:48:00,53.6,19.6,30.17,NNW,344,5.0,6.0,26,0.00,,,0.00,0,WeatherHawk,2013-01-18 08:48:00,
2013-01-18 01:50:00,53.4,19.4,30.17,NNW,343,4.0,6.0,26,0.00,,,0.00,0,WeatherHawk,2013-01-18 08:50:00,
2013-01-18 01:52:00,53.4,19.4,30.17,North,353,6.0,-999.0,26,0.00,,,0.00,0,WeatherHawk,2013-01-18 08:52:00,
2013-01-18 01:53:00,53.4,19.4,30.17,North,352,6.0,6.0,26,0.00,,,0.00,0,WeatherHawk,2013-01-18 08:53:00,
2013-01-18 01:55:00,53.4,19.4,30.17,North,355,6.0,6.0,26,0.00,,,0.00,0,WeatherHawk,2013-01-18 08:55:00,
2013-01-18 01:57:00,53.4,19.4,30.17,North,353,6.0,-999.0,26,0.00,,,0.00,0,WeatherHawk,2013-01-18 08:57:00,
2013-01-18 02:01:00,53.6,18.6,30.17,North,350,6.0,7.0,25,0.00,,,0.00,0,WeatherHawk,2013-01-18 09:01:00,
2013-01-18 02:02:00,53.6,18.6,30.17,North,350,6.0,7.0,25,0.00,,,0.00,0,WeatherHawk,2013-01-18 09:02:00,
2013-01-18 02:07:00,54.0,19.0,30.17,NNW,347,7.0,7.0,25,0.00,,,0.00,0,WeatherHawk,2013-01-18 09:07:00,
2013-01-18 02:08:00,53.8,18.8,30.17,NNW,343,6.0,7.0,25,0.00,,,0.00,0,WeatherHawk,2013-01-18 09:08:00,
2013-01-18 02:09:00,53.6,18.6,30.17,NNW,342,6.0,7.0,25,0.00,,,0.00,0,WeatherHawk,2013-01-18 09:09:00,
2013-01-18 02:12:00,53.6,18.6,30.17,NNW,345,6.0,7.0,25,0.00,,,0.00,0,WeatherHawk,2013-01-18 09:12:00,
2013-01-18 02:13:00,53.6,18.6,30.17,NNW,343,8.0,8.0,25,0.00,,,0.00,0,WeatherHawk,2013-01-18 09:13:00,
2013-01-18 02:16:00,53.6,18.6,30.17,NNW,335,6.0,7.0,25,0.00,,,0.00,0,WeatherHawk,2013-01-18 09:16:00,
2013-01-18 02:17:00,53.4,19.4,30.17,NNW,331,6.0,0.0,26,0.00,,,0.00,0,WeatherHawk,2013-01-18 09:17:00,
2013-01-18 02:18:00,53.4,19.4,30.17,NNW,338,7.0,8.0,26,0.00,,,0.00,0,WeatherHawk,2013-01-18 09:18:00,
2013-01-18 02:19:00,53.4,19.4,30.17,NNW,338,7.0,8.0,26,0.00,,,0.00,0,WeatherHawk,2013-01-18 09:19:00,
2013-01-18 02:22:00,53.2,19.3,30.17,NNW,339,6.0,8.0,26,0.00,,,0.00,0,WeatherHawk,2013-01-18 09:22:00,
2013-01-18 02:24:00,53.2,19.3,30.17,NNW,338,6.0,8.0,26,0.00,,,0.00,0,WeatherHawk,2013-01-18 09:24:00,
2013-01-18 02:26:00,53.2,18.3,30.17,NNW,343,7.0,8.0,25,0.00,,,0.00,0,WeatherHawk,2013-01-18 09:26:00,
2013-01-18 02:28:00,53.4,18.5,30.17,NNW,343,7.0,0.0,25,0.00,,,0.00,0,WeatherHawk,2013-01-18 09:28:00,
2013-01-18 02:30:00,53.4,18.5,30.17,NNW,343,7.0,0.0,25,0.00,,,0.00,0,WeatherHawk,2013-01-18 09:30:00,
2013-01-18 02:33:00,53.8,18.8,30.17,NNW,345,7.0,0.0,25,0.00,,,0.00,0,WeatherHawk,2013-01-18 09:33:00,
2013-01-18 02:35:00,53.8,17.9,30.17,NNW,346,7.0,0.0,24,0.00,,,0.00,0,WeatherHawk,2013-01-18 09:35:00,
2013-01-18 02:39:00,54.1,18.2,30.17,NNW,346,7.0,0.0,24,0.00,,,0.00,0,WeatherHawk,2013-01-18 09:39:00,
2013-01-18 02:40:00,54.1,18.2,30.17,NNW,348,7.0,0.0,24,0.00,,,0.00,0,WeatherHawk,2013-01-18 09:40:00,
2013-01-18 02:43:00,54.1,18.2,30.16,NNW,342,8.0,0.0,24,0.00,,,0.00,0,WeatherHawk,2013-01-18 09:43:00,
2013-01-18 02:46:00,54.5,17.5,30.16,North,350,8.0,0.0,23,0.00,,,0.00,0,WeatherHawk,2013-01-18 09:46:00,
2013-01-18 02:50:00,54.5,17.5,30.16,NNW,346,7.0,9.0,23,0.00,,,0.00,0,WeatherHawk,2013-01-18 09:50:00,
2013-01-18 02:51:00,54.5,17.5,30.16,NNW,343,7.0,-999.0,23,0.00,,,0.00,0,WeatherHawk,2013-01-18 09:51:00,
2013-01-18 02:55:00,54.5,17.5,30.16,NNW,348,8.0,9.0,23,0.00,,,0.00,0,WeatherHawk,2013-01-18 09:55:00,
2013-01-18 02:56:00,54.5,17.5,30.16,NNW,347,7.0,9.0,23,0.00,,,0.00,0,WeatherHawk,2013-01-18 09:56:00,
2013-01-18 03:00:00,54.5,17.5,30.16,NNW,347,8.0,8.0,23,0.00,,,0.00,0,WeatherHawk,2013-01-18 10:00:00,
2013-01-18 03:01:00,54.5,17.5,30.16,NNW,348,8.0,8.0,23,0.00,,,0.00,0,WeatherHawk,2013-01-18 10:01:00,
2013-01-18 03:04:00,54.3,17.3,30.16,NNW,348,8.0,8.0,23,0.00,,,0.00,0,WeatherHawk,2013-01-18 10:04:00,
2013-01-18 03:06:00,54.3,18.3,30.16,North,350,8.0,8.0,24,0.00,,,0.00,0,WeatherHawk,2013-01-18 10:06:00,
2013-01-18 03:07:00,54.3,18.3,30.16,North,354,8.0,0.0,24,0.00,,,0.00,0,WeatherHawk,2013-01-18 10:07:00,
2013-01-18 03:13:00,53.8,17.9,30.16,North,355,7.0,0.0,24,0.00,,,0.00,0,WeatherHawk,2013-01-18 10:13:00,
2013-01-18 03:16:00,53.6,17.7,30.16,North,358,8.0,0.0,24,0.00,,,0.00,0,WeatherHawk,2013-01-18 10:16:00,
2013-01-18 03:18:00,53.6,17.7,30.16,North,356,8.0,0.0,24,0.00,,,0.00,0,WeatherHawk,2013-01-18 10:18:00,
2013-01-18 03:20:00,53.6,17.7,30.16,North,358,7.0,0.0,24,0.00,,,0.00,0,WeatherHawk,2013-01-18 10:20:00,
2013-01-18 03:24:00,53.4,17.5,30.16,North,356,7.0,0.0,24,0.00,,,0.00,0,WeatherHawk,2013-01-18 10:24:00,
2013-01-18 03:26:00,53.4,17.5,30.16,North,354,8.0,0.0,24,0.00,,,0.00,0,WeatherHawk,2013-01-18 10:26:00,
2013-01-18 03:29:00,53.2,18.3,30.16,North,351,8.0,0.0,25,0.00,,,0.00,0,WeatherHawk,2013-01-18 10:29:00,
2013-01-18 03:31:00,53.4,18.5,30.15,North,353,8.0,-999.0,25,0.00,,,0.00,0,WeatherHawk,2013-01-18 10:31:00,
2013-01-18 03:33:00,53.4,17.5,30.15,North,353,8.0,0.0,24,0.00,,,0.00,0,WeatherHawk,2013-01-18 10:33:00,
2013-01-18 03:35:00,53.4,18.5,30.15,North,357,8.0,0.0,25,0.00,,,0.00,0,WeatherHawk,2013-01-18 10:35:00,
2013-01-18 03:36:00,53.4,18.5,30.15,North,357,8.0,-999.0,25,0.00,,,0.00,0,WeatherHawk,2013-01-18 10:36:00,
2013-01-18 03:37:00,53.2,18.3,30.15,North,358,8.0,0.0,25,0.00,,,0.00,0,WeatherHawk,2013-01-18 10:37:00,
2013-01-18 03:40:00,53.2,17.4,30.15,North,355,8.0,0.0,24,0.00,,,0.00,0,WeatherHawk,2013-01-18 10:40:00,
2013-01-18 03:41:00,53.2,17.4,30.15,North,357,7.0,0.0,24,0.00,,,0.00,0,WeatherHawk,2013-01-18 10:41:00,
2013-01-18 03:45:00,53.6,17.7,30.15,North,357,8.0,0.0,24,0.00,,,0.00,0,WeatherHawk,2013-01-18 10:45:00,
2013-01-18 03:46:00,53.6,17.7,30.15,North,355,7.0,0.0,24,0.00,,,0.00,0,WeatherHawk,2013-01-18 10:46:00,
2013-01-18 03:50:00,54.0,17.0,30.15,North,356,8.0,0.0,23,0.00,,,0.00,2,WeatherHawk,2013-01-18 10:50:00,
2013-01-18 03:51:00,54.0,17.0,30.15,North,356,8.0,-999.0,23,0.00,,,0.00,2,WeatherHawk,2013-01-18 10:51:00,
2013-01-18 03:53:00,54.1,17.2,30.15,North,354,9.0,0.0,23,0.00,,,0.00,0,WeatherHawk,2013-01-18 10:53:00,
2013-01-18 03:56:00,54.3,17.3,30.15,North,355,8.0,0.0,23,0.00,,,0.00,0,WeatherHawk,2013-01-18 10:56:00,
2013-01-18 03:58:00,54.3,17.3,30.15,North,354,9.0,0.0,23,0.00,,,0.00,0,WeatherHawk,2013-01-18 10:58:00,
2013-01-18 03:59:00,54.3,17.3,30.15,North,353,10.0,0.0,23,0.00,,,0.00,0,WeatherHawk,2013-01-18 10:59:00,
2013-01-18 04:00:00,54.5,17.5,30.15,North,350,12.0,0.0,23,0.00,,,0.00,0,WeatherHawk,2013-01-18 11:00:00,
2013-01-18 04:02:00,54.5,17.5,30.15,NNW,345,9.0,0.0,23,0.00,,,0.00,0,WeatherHawk,2013-01-18 11:02:00,
2013-01-18 04:06:00,54.3,17.3,30.15,NNW,340,10.0,0.0,23,0.00,,,0.00,0,WeatherHawk,2013-01-18 11:06:00,
2013-01-18 04:08:00,54.7,16.6,30.15,NNW,341,12.0,12.0,22,0.00,,,0.00,0,WeatherHawk,2013-01-18 11:08:00,
2013-01-18 04:11:00,55.0,16.9,30.15,NNW,337,10.0,-999.0,22,0.00,,,0.00,0,WeatherHawk,2013-01-18 11:11:00,
2013-01-18 04:13:00,54.3,17.3,30.15,NNW,330,9.0,12.0,23,0.00,,,0.00,0,WeatherHawk,2013-01-18 11:13:00,
2013-01-18 04:16:00,53.6,18.6,30.15,NW,322,7.0,12.0,25,0.00,,,0.00,0,WeatherHawk,2013-01-18 11:16:00,
2013-01-18 04:20:00,52.3,18.5,30.15,NW,318,7.0,0.0,26,0.00,,,0.00,1,WeatherHawk,2013-01-18 11:20:00,
2013-01-18 04:23:00,52.2,18.3,30.15,NW,320,7.0,0.0,26,0.00,,,0.00,0,WeatherHawk,2013-01-18 11:23:00,
2013-01-18 04:24:00,52.3,18.5,30.15,NW,321,7.0,0.0,26,0.00,,,0.00,0,WeatherHawk,2013-01-18 11:24:00,
2013-01-18 04:26:00,52.5,17.7,30.15,NW,322,7.0,0.0,25,0.00,,,0.00,0,WeatherHawk,2013-01-18 11:26:00,
2013-01-18 04:30:00,52.7,17.9,30.15,NW,325,6.0,0.0,25,0.00,,,0.00,0,WeatherHawk,2013-01-18 11:30:00,
2013-01-18 04:31:00,52.7,17.9,30.15,NNW,328,6.0,0.0,25,0.00,,,0.00,0,WeatherHawk,2013-01-18 11:31:00,
2013-01-18 04:32:00,52.7,17.9,30.15,NNW,330,6.0,0.0,25,0.00,,,0.00,0,WeatherHawk,2013-01-18 11:32:00,
2013-01-18 04:36:00,52.9,18.0,30.15,NNW,332,7.0,-999.0,25,0.00,,,0.00,0,WeatherHawk,2013-01-18 11:36:00,
2013-01-18 04:37:00,52.9,18.0,30.15,NNW,333,7.0,0.0,25,0.00,,,0.00,0,WeatherHawk,2013-01-18 11:37:00,
2013-01-18 04:38:00,53.1,17.2,30.15,NNW,338,7.0,0.0,24,0.00,,,0.00,0,WeatherHawk,2013-01-18 11:38:00,
2013-01-18 04:41:00,53.6,17.7,30.15,NNW,345,8.0,0.0,24,0.00,,,0.00,0,WeatherHawk,2013-01-18 11:41:00,
2013-01-18 04:42:00,53.6,17.7,30.15,NNW,343,7.0,0.0,24,0.00,,,0.00,0,WeatherHawk,2013-01-18 11:42:00,
2013-01-18 04:43:00,53.8,17.9,30.15,NNW,346,7.0,0.0,24,0.00,,,0.00,0,WeatherHawk,2013-01-18 11:43:00,
2013-01-18 04:44:00,53.8,16.9,30.15,NNW,345,7.0,0.0,23,0.00,,,0.00,1,WeatherHawk,2013-01-18 11:44:00,
2013-01-18 04:49:00,54.0,17.0,30.16,North,355,6.0,0.0,23,0.00,,,0.00,0,WeatherHawk,2013-01-18 11:49:00,
2013-01-18 04:50:00,54.0,17.0,30.16,North,359,6.0,0.0,23,0.00,,,0.00,0,WeatherHawk,2013-01-18 11:50:00,
2013-01-18 04:51:00,54.0,17.0,30.16,North,359,6.0,0.0,23,0.00,,,0.00,0,WeatherHawk,2013-01-18 11:51:00,
2013-01-18 04:56:00,54.1,17.2,30.15,North,1,6.0,0.0,23,0.00,,,0.00,0,WeatherHawk,2013-01-18 11:56:00,
2013-01-18 04:59:00,54.1,17.2,30.15,North,2,6.0,0.0,23,0.00,,,0.00,1,WeatherHawk,2013-01-18 11:59:00,
2013-01-18 05:00:00,54.1,17.2,30.15,North,2,7.0,0.0,23,0.00,,,0.00,0,WeatherHawk,2013-01-18 12:00:00,
2013-01-18 05:01:00,54.1,17.2,30.15,North,2,7.0,0.0,23,0.00,,,0.00,0,WeatherHawk,2013-01-18 12:01:00,
2013-01-18 05:02:00,54.1,17.2,30.15,North,0,7.0,0.0,23,0.00,,,0.00,0,WeatherHawk,2013-01-18 12:02:00,
2013-01-18 05:05:00,54.0,17.0,30.15,North,5,7.0,0.0,23,0.00,,,0.00,0,WeatherHawk,2013-01-18 12:05:00,
2013-01-18 05:07:00,54.0,17.0,30.15,North,4,7.0,7.0,23,0.00,,,0.00,0,WeatherHawk,2013-01-18 12:07:00,
2013-01-18 05:08:00,53.8,16.9,30.15,North,5,7.0,7.0,23,0.00,,,0.00,0,WeatherHawk,2013-01-18 12:08:00,
2013-01-18 05:12:00,53.8,16.9,30.15,North,4,7.0,-999.0,23,0.00,,,0.00,0,WeatherHawk,2013-01-18 12:12:00,
2013-01-18 05:14:00,53.8,16.9,30.15,North,6,8.0,8.0,23,0.00,,,0.00,0,WeatherHawk,2013-01-18 12:14:00,
2013-01-18 05:17:00,53.6,16.7,30.15,North,7,7.0,7.0,23,0.00,,,0.00,0,WeatherHawk,2013-01-18 12:17:00,
2013-01-18 05:19:00,53.6,16.7,30.15,North,7,8.0,8.0,23,0.00,,,0.00,0,WeatherHawk,2013-01-18 12:19:00,
2013-01-18 05:21:00,53.6,16.7,30.15,North,7,8.0,8.0,23,0.00,,,0.00,0,WeatherHawk,2013-01-18 12:21:00,
2013-01-18 05:22:00,53.6,16.7,30.15,North,7,8.0,8.0,23,0.00,,,0.00,0,WeatherHawk,2013-01-18 12:22:00,
2013-01-18 05:25:00,53.2,16.4,30.15,North,10,8.0,8.0,23,0.00,,,0.00,1,WeatherHawk,2013-01-18 12:25:00,
2013-01-18 05:27:00,53.4,16.6,30.15,North,9,8.0,8.0,23,0.00,,,0.00,0,WeatherHawk,2013-01-18 12:27:00,
2013-01-18 05:30:00,53.4,16.6,30.15,North,9,9.0,11.0,23,0.00,,,0.00,0,WeatherHawk,2013-01-18 12:30:00,
2013-01-18 05:31:00,53.6,16.7,30.15,North,8,9.0,11.0,23,0.00,,,0.00,0,WeatherHawk,2013-01-18 12:31:00,
2013-01-18 05:32:00,53.6,16.7,30.15,North,3,8.0,11.0,23,0.00,,,0.00,0,WeatherHawk,2013-01-18 12:32:00,
2013-01-18 05:35:00,53.4,17.5,30.15,North,7,8.0,11.0,24,0.00,,,0.00,0,WeatherHawk,2013-01-18 12:35:00,
2013-01-18 05:36:00,53.2,17.4,30.15,North,5,8.0,11.0,24,0.00,,,0.00,0,WeatherHawk,2013-01-18 12:36:00,
2013-01-18 05:37:00,53.2,17.4,30.15,North,8,9.0,11.0,24,0.00,,,0.00,0,WeatherHawk,2013-01-18 12:37:00,
2013-01-18 05:40:00,53.2,17.4,30.15,North,4,9.0,10.0,24,0.00,,,0.00,0,WeatherHawk,2013-01-18 12:40:00,
2013-01-18 05:41:00,53.2,17.4,30.15,North,4,8.0,10.0,24,0.00,,,0.00,0,WeatherHawk,2013-01-18 12:41:00,
2013-01-18 05:42:00,53.2,17.4,30.15,North,3,9.0,10.0,24,0.00,,,0.00,0,WeatherHawk,2013-01-18 12:42:00,
2013-01-18 05:43:00,53.2,17.4,30.15,North,2,8.0,10.0,24,0.00,,,0.00,0,WeatherHawk,2013-01-18 12:43:00,
2013-01-18 05:47:00,53.2,17.4,30.15,North,357,9.0,-999.0,24,0.00,,,0.00,0,WeatherHawk,2013-01-18 12:47:00,
2013-01-18 05:48:00,53.2,17.4,30.15,North,359,9.0,0.0,24,0.00,,,0.00,0,WeatherHawk,2013-01-18 12:48:00,
2013-01-18 05:50:00,53.2,17.4,30.16,North,357,8.0,10.0,24,0.00,,,0.00,0,WeatherHawk,2013-01-18 12:50:00,
2013-01-18 05:52:00,53.2,17.4,30.15,North,0,9.0,-999.0,24,0.00,,,0.00,0,WeatherHawk,2013-01-18 12:52:00,
2013-01-18 05:56:00,53.2,17.4,30.16,North,0,9.0,10.0,24,0.00,,,0.00,0,WeatherHawk,2013-01-18 12:56:00,
2013-01-18 05:57:00,53.2,17.4,30.16,North,357,8.0,10.0,24,0.00,,,0.00,0,WeatherHawk,2013-01-18 12:57:00,
2013-01-18 05:58:00,53.1,17.2,30.16,North,359,8.0,0.0,24,0.00,,,0.00,0,WeatherHawk,2013-01-18 12:58:00,
2013-01-18 05:59:00,53.1,17.2,30.16,North,355,8.0,10.0,24,0.00,,,0.00,0,WeatherHawk,2013-01-18 12:59:00,
2013-01-18 06:01:00,53.1,17.2,30.16,North,354,8.0,10.0,24,0.00,,,0.00,0,WeatherHawk,2013-01-18 13:01:00,
2013-01-18 06:03:00,53.1,17.2,30.16,North,359,7.0,10.0,24,0.00,,,0.00,0,WeatherHawk,2013-01-18 13:03:00,
2013-01-18 06:06:00,52.7,16.9,30.16,North,0,8.0,10.0,24,0.00,,,0.00,1,WeatherHawk,2013-01-18 13:06:00,
2013-01-18 06:07:00,52.7,16.9,30.16,North,0,8.0,10.0,24,0.00,,,0.00,1,WeatherHawk,2013-01-18 13:07:00,
2013-01-18 06:11:00,52.5,17.7,30.16,North,7,9.0,9.0,25,0.00,,,0.00,0,WeatherHawk,2013-01-18 13:11:00,
2013-01-18 06:12:00,52.7,17.9,30.16,North,6,10.0,10.0,25,0.00,,,0.00,0,WeatherHawk,2013-01-18 13:12:00,
2013-01-18 06:14:00,52.9,18.0,30.16,North,6,10.0,10.0,25,0.00,,,0.00,0,WeatherHawk,2013-01-18 13:14:00,
2013-01-18 06:15:00,52.9,18.0,30.16,North,6,10.0,10.0,25,0.00,,,0.00,0,WeatherHawk,2013-01-18 13:15:00,
2013-01-18 06:19:00,52.9,18.0,30.16,North,11,9.0,11.0,25,0.00,,,0.00,0,WeatherHawk,2013-01-18 13:19:00,
2013-01-18 06:20:00,52.9,18.0,30.16,North,9,10.0,11.0,25,0.00,,,0.00,0,WeatherHawk,2013-01-18 13:20:00,
2013-01-18 06:23:00,53.1,17.2,30.16,North,8,10.0,11.0,24,0.00,,,0.00,0,WeatherHawk,2013-01-18 13:23:00,
2013-01-18 06:26:00,53.1,17.2,30.16,North,10,10.0,11.0,24,0.00,,,0.00,0,WeatherHawk,2013-01-18 13:26:00,
2013-01-18 06:27:00,53.2,17.4,30.16,North,10,10.0,11.0,24,0.00,,,0.00,0,WeatherHawk,2013-01-18 13:27:00,
2013-01-18 06:30:00,53.2,17.4,30.16,North,9,10.0,11.0,24,0.00,,,0.00,0,WeatherHawk,2013-01-18 13:30:00,
2013-01-18 06:31:00,53.2,17.4,30.16,North,9,10.0,11.0,24,0.00,,,0.00,0,WeatherHawk,2013-01-18 13:31:00,
2013-01-18 06:32:00,53.2,17.4,30.16,North,8,9.0,11.0,24,0.00,,,0.00,0,WeatherHawk,2013-01-18 13:32:00,
2013-01-18 06:36:00,53.2,17.4,30.16,North,7,9.0,11.0,24,0.00,,,0.00,0,WeatherHawk,2013-01-18 13:36:00,
2013-01-18 06:37:00,53.2,17.4,30.16,North,7,9.0,11.0,24,0.00,,,0.00,0,WeatherHawk,2013-01-18 13:37:00,
2013-01-18 06:39:00,53.1,17.2,30.16,North,8,10.0,11.0,24,0.00,,,0.00,0,WeatherHawk,2013-01-18 13:39:00,
2013-01-18 06:42:00,53.1,18.2,30.16,North,8,9.0,11.0,25,0.00,,,0.00,1,WeatherHawk,2013-01-18 13:42:00,
2013-01-18 06:43:00,52.9,18.0,30.16,North,9,9.0,11.0,25,0.00,,,0.00,0,WeatherHawk,2013-01-18 13:43:00,
2013-01-18 06:44:00,52.9,18.0,30.16,North,7,9.0,11.0,25,0.00,,,0.00,0,WeatherHawk,2013-01-18 13:44:00,
2013-01-18 06:47:00,52.7,17.9,30.16,North,10,9.0,11.0,25,0.00,,,0.00,0,WeatherHawk,2013-01-18 13:47:00,
2013-01-18 06:48:00,52.5,17.7,30.16,North,8,8.0,11.0,25,0.00,,,0.00,0,WeatherHawk,2013-01-18 13:48:00,
2013-01-18 06:50:00,52.3,17.6,30.16,North,10,9.0,11.0,25,0.00,,,0.00,0,WeatherHawk,2013-01-18 13:50:00,
2013-01-18 06:53:00,52.5,17.7,30.16,NNE,17,9.0,11.0,25,0.00,,,0.00,0,WeatherHawk,2013-01-18 13:53:00,
2013-01-18 06:54:00,52.5,17.7,30.16,NNE,12,8.0,11.0,25,0.00,,,0.00,0,WeatherHawk,2013-01-18 13:54:00,
2013-01-18 06:56:00,52.3,17.6,30.16,NNE,14,9.0,11.0,25,0.00,,,0.00,1,WeatherHawk,2013-01-18 13:56:00,
2013-01-18 06:59:00,52.3,18.5,30.16,North,11,9.0,11.0,26,0.00,,,0.00,0,WeatherHawk,2013-01-18 13:59:00,
2013-01-18 07:01:00,52.3,18.5,30.16,NNE,14,9.0,11.0,26,0.00,,,0.00,1,WeatherHawk,2013-01-18 14:01:00,
2013-01-18 07:03:00,52.2,18.3,30.16,NNE,16,10.0,11.0,26,0.00,,,0.00,0,WeatherHawk,2013-01-18 14:03:00,
2013-01-18 07:05:00,52.2,18.3,30.16,NNE,14,10.0,11.0,26,0.00,,,0.00,0,WeatherHawk,2013-01-18 14:05:00,
2013-01-18 07:06:00,52.2,18.3,30.16,NNE,15,9.0,11.0,26,0.00,,,0.00,1,WeatherHawk,2013-01-18 14:06:00,
2013-01-18 07:07:00,52.2,18.3,30.16,NNE,15,9.0,-999.0,26,0.00,,,0.00,1,WeatherHawk,2013-01-18 14:07:00,
2013-01-18 07:12:00,52.2,18.3,30.16,NNE,13,10.0,11.0,26,0.00,,,0.00,0,WeatherHawk,2013-01-18 14:12:00,
2013-01-18 07:13:00,52.2,18.3,30.16,NNE,17,10.0,11.0,26,0.00,,,0.00,0,WeatherHawk,2013-01-18 14:13:00,
2013-01-18 07:16:00,52.2,18.3,30.16,NNE,13,9.0,11.0,26,0.00,,,0.00,0,WeatherHawk,2013-01-18 14:16:00,
2013-01-18 07:17:00,52.2,18.3,30.16,NNE,14,9.0,11.0,26,0.00,,,0.00,0,WeatherHawk,2013-01-18 14:17:00,
2013-01-18 07:22:00,52.2,18.3,30.16,NNE,17,10.0,11.0,26,0.00,,,0.00,0,WeatherHawk,2013-01-18 14:22:00,
2013-01-18 07:24:00,52.3,18.5,30.16,NNE,19,10.0,11.0,26,0.00,,,0.00,1,WeatherHawk,2013-01-18 14:24:00,
2013-01-18 07:26:00,52.5,18.6,30.17,NNE,15,9.0,11.0,26,0.00,,,0.00,1,WeatherHawk,2013-01-18 14:26:00,
2013-01-18 07:27:00,52.3,18.5,30.17,NNE,18,11.0,11.0,26,0.00,,,0.00,0,WeatherHawk,2013-01-18 14:27:00,
2013-01-18 07:31:00,52.3,18.5,30.17,NNE,24,10.0,11.0,26,0.00,,,0.00,0,WeatherHawk,2013-01-18 14:31:00,
2013-01-18 07:32:00,52.3,18.5,30.17,NNE,24,10.0,-999.0,26,0.00,,,0.00,0,WeatherHawk,2013-01-18 14:32:00,
2013-01-18 07:37:00,51.8,18.9,30.17,NNE,24,10.0,11.0,27,0.00,,,0.00,3,WeatherHawk,2013-01-18 14:37:00,
2013-01-18 07:38:00,51.8,18.9,30.17,NNE,26,8.0,11.0,27,0.00,,,0.00,3,WeatherHawk,2013-01-18 14:38:00,
2013-01-18 07:39:00,51.6,18.7,30.17,NNE,25,9.0,11.0,27,0.00,,,0.00,3,WeatherHawk,2013-01-18 14:39:00,
2013-01-18 07:42:00,51.4,19.4,30.17,NNE,28,8.0,11.0,28,0.00,,,0.00,8,WeatherHawk,2013-01-18 14:42:00,
2013-01-18 07:43:00,51.3,19.3,30.17,NNE,27,9.0,11.0,28,0.00,,,0.00,8,WeatherHawk,2013-01-18 14:43:00,
2013-01-18 07:46:00,51.1,19.1,30.17,NNE,28,10.0,11.0,28,0.00,,,0.00,14,WeatherHawk,2013-01-18 14:46:00,
2013-01-18 07:48:00,51.3,19.3,30.17,NNE,29,9.0,10.0,28,0.00,,,0.00,12,WeatherHawk,2013-01-18 14:48:00,
2013-01-18 07:49:00,51.3,19.3,30.17,NNE,26,8.0,10.0,28,0.00,,,0.00,11,WeatherHawk,2013-01-18 14:49:00,
2013-01-18 07:52:00,51.1,19.1,30.17,NNE,26,10.0,-999.0,28,0.00,,,0.00,13,WeatherHawk,2013-01-18 14:52:00,
2013-01-18 07:53:00,51.1,19.1,30.17,NNE,26,9.0,10.0,28,0.00,,,0.00,15,WeatherHawk,2013-01-18 14:53:00,
2013-01-18 07:54:00,51.1,19.1,30.17,NNE,27,10.0,10.0,28,0.00,,,0.00,15,WeatherHawk,2013-01-18 14:54:00,
2013-01-18 07:58:00,51.4,18.6,30.17,NNE,24,10.0,11.0,27,0.00,,,0.00,20,WeatherHawk,2013-01-18 14:58:00,
2013-01-18 08:01:00,51.8,18.9,30.17,NNE,23,11.0,11.0,27,0.00,,,0.00,23,WeatherHawk,2013-01-18 15:01:00,
2013-01-18 08:02:00,52.0,19.1,30.17,NNE,20,10.0,11.0,27,0.00,,,0.00,25,WeatherHawk,2013-01-18 15:02:00,
2013-01-18 08:04:00,52.0,19.1,30.17,NNE,23,9.0,11.0,27,0.00,,,0.00,32,WeatherHawk,2013-01-18 15:04:00,
2013-01-18 08:08:00,52.3,18.5,30.17,NNE,15,9.0,11.0,26,0.00,,,0.00,61,WeatherHawk,2013-01-18 15:08:00,
2013-01-18 08:10:00,52.3,18.5,30.17,NNE,14,8.0,11.0,26,0.00,,,0.00,55,WeatherHawk,2013-01-18 15:10:00,
2013-01-18 08:12:00,52.3,18.5,30.17,NNE,15,10.0,11.0,26,0.00,,,0.00,50,WeatherHawk,2013-01-18 15:12:00,
2013-01-18 08:15:00,52.7,18.8,30.18,NNE,14,9.0,11.0,26,0.00,,,0.00,74,WeatherHawk,2013-01-18 15:15:00,
2013-01-18 08:17:00,52.7,18.8,30.18,North,9,10.0,11.0,26,0.00,,,0.00,80,WeatherHawk,2013-01-18 15:17:00,
2013-01-18 08:20:00,52.7,18.8,30.18,North,11,10.0,12.0,26,0.00,,,0.00,71,WeatherHawk,2013-01-18 15:20:00,
2013-01-18 08:22:00,52.9,18.9,30.18,North,8,9.0,12.0,26,0.00,,,0.00,70,WeatherHawk,2013-01-18 15:22:00,
2013-01-18 08:24:00,52.9,18.9,30.18,North,7,9.0,12.0,26,0.00,,,0.00,65,WeatherHawk,2013-01-18 15:24:00,
2013-01-18 08:25:00,52.9,18.9,30.18,NNE,17,10.0,12.0,26,0.00,,,0.00,64,WeatherHawk,2013-01-18 15:25:00,
2013-01-18 08:29:00,53.2,19.3,30.18,North,7,9.0,11.0,26,0.00,,,0.00,101,WeatherHawk,2013-01-18 15:29:00,
2013-01-18 08:30:00,53.2,19.3,30.18,NNE,12,11.0,11.0,26,0.00,,,0.00,99,WeatherHawk,2013-01-18 15:30:00,
2013-01-18 08:32:00,53.4,19.4,30.18,NNE,13,10.0,-999.0,26,0.00,,,0.00,96,WeatherHawk,2013-01-18 15:32:00,
2013-01-18 08:35:00,53.6,18.6,30.18,NNE,17,11.0,11.0,25,0.00,,,0.00,96,WeatherHawk,2013-01-18 15:35:00,
2013-01-18 08:36:00,53.6,19.6,30.18,North,11,9.0,11.0,26,0.00,,,0.00,93,WeatherHawk,2013-01-18 15:36:00,
2013-01-18 08:37:00,53.6,19.6,30.18,North,11,9.0,11.0,26,0.00,,,0.00,93,WeatherHawk,2013-01-18 15:37:00,
2013-01-18 08:41:00,54.0,19.0,30.18,NNE,18,9.0,12.0,25,0.00,,,0.00,99,WeatherHawk,2013-01-18 15:41:00,
2013-01-18 08:42:00,54.0,19.0,30.18,North,9,11.0,12.0,25,0.00,,,0.00,96,WeatherHawk,2013-01-18 15:42:00,
2013-01-18 08:44:00,54.1,19.1,30.19,NNE,12,11.0,12.0,25,0.00,,,0.00,94,WeatherHawk,2013-01-18 15:44:00,
2013-01-18 08:46:00,54.1,19.1,30.18,NNE,13,13.0,13.0,25,0.00,,,0.00,108,WeatherHawk,2013-01-18 15:46:00,
2013-01-18 08:47:00,54.1,19.1,30.18,NNE,13,13.0,13.0,25,0.00,,,0.00,108,WeatherHawk,2013-01-18 15:47:00,
2013-01-18 08:50:00,54.5,19.4,30.18,NNE,13,13.0,13.0,25,0.00,,,0.00,96,WeatherHawk,2013-01-18 15:50:00,
2013-01-18 08:52:00,54.7,19.6,30.18,NNE,14,13.0,13.0,25,0.00,,,0.00,100,WeatherHawk,2013-01-18 15:52:00,
2013-01-18 08:57:00,55.0,18.9,30.19,NNE,13,12.0,13.0,24,0.00,,,0.00,120,WeatherHawk,2013-01-18 15:57:00,
2013-01-18 09:02:00,55.2,20.0,30.19,North,11,13.0,15.0,25,0.00,,,0.00,101,WeatherHawk,2013-01-18 16:02:00,
2013-01-18 09:03:00,55.2,20.0,30.19,North,7,10.0,15.0,25,0.00,,,0.00,111,WeatherHawk,2013-01-18 16:03:00,
2013-01-18 09:04:00,55.2,20.0,30.19,NNE,14,11.0,15.0,25,0.00,,,0.00,104,WeatherHawk,2013-01-18 16:04:00,
2013-01-18 09:07:00,55.4,20.2,30.19,NNE,13,12.0,0.0,25,0.00,,,0.00,172,WeatherHawk,2013-01-18 16:07:00,
2013-01-18 09:10:00,55.8,19.5,30.19,NNE,16,11.0,15.0,24,0.00,,,0.00,227,WeatherHawk,2013-01-18 16:10:00,
2013-01-18 09:11:00,55.9,20.6,30.19,North,10,11.0,15.0,25,0.00,,,0.00,237,WeatherHawk,2013-01-18 16:11:00,
2013-01-18 09:13:00,56.1,19.8,30.20,North,8,12.0,15.0,24,0.00,,,0.00,221,WeatherHawk,2013-01-18 16:13:00,
2013-01-18 09:16:00,56.5,20.1,30.20,NNE,14,12.0,15.0,24,0.00,,,0.00,223,WeatherHawk,2013-01-18 16:16:00,
2013-01-18 09:17:00,56.5,20.1,30.20,North,10,13.0,15.0,24,0.00,,,0.00,223,WeatherHawk,2013-01-18 16:17:00,
2013-01-18 09:18:00,56.7,20.3,30.20,North,9,11.0,16.0,24,0.00,,,0.00,227,WeatherHawk,2013-01-18 16:18:00,
2013-01-18 09:22:00,56.7,20.3,30.20,NNE,14,13.0,16.0,24,0.00,,,0.00,264,WeatherHawk,2013-01-18 16:22:00,
2013-01-18 09:24:00,56.8,20.4,30.20,NNE,13,11.0,16.0,24,0.00,,,0.00,256,WeatherHawk,2013-01-18 16:24:00,
2013-01-18 09:29:00,57.2,20.7,30.20,NNE,14,10.0,15.0,24,0.00,,,0.00,288,WeatherHawk,2013-01-18 16:29:00,
2013-01-18 09:31:00,57.4,20.9,30.20,North,11,10.0,15.0,24,0.00,,,0.00,296,WeatherHawk,2013-01-18 16:31:00,
2013-01-18 09:34:00,57.7,20.2,30.20,NNE,13,13.0,15.0,23,0.00,,,0.00,299,WeatherHawk,2013-01-18 16:34:00,
2013-01-18 09:36:00,57.9,20.4,30.20,NNE,14,12.0,15.0,23,0.00,,,0.00,315,WeatherHawk,2013-01-18 16:36:00,
2013-01-18 09:39:00,58.3,19.6,30.20,NNE,17,12.0,15.0,22,0.00,,,0.00,317,WeatherHawk,2013-01-18 16:39:00,
2013-01-18 09:40:00,58.5,20.8,30.20,NNE,15,10.0,15.0,23,0.00,,,0.00,324,WeatherHawk,2013-01-18 16:40:00,
2013-01-18 09:41:00,58.5,19.8,30.20,North,11,12.0,15.0,22,0.00,,,0.00,332,WeatherHawk,2013-01-18 16:41:00,
2013-01-18 09:42:00,58.5,20.8,30.20,North,9,11.0,15.0,23,0.00,,,0.00,338,WeatherHawk,2013-01-18 16:42:00,
2013-01-18 09:45:00,58.8,20.1,30.20,North,10,13.0,15.0,22,0.00,,,0.00,354,WeatherHawk,2013-01-18 16:45:00,
2013-01-18 09:47:00,58.8,20.1,30.20,North,10,13.0,15.0,22,0.00,,,0.00,354,WeatherHawk,2013-01-18 16:47:00,
2013-01-18 09:50:00,59.2,20.4,30.20,NNE,29,14.0,15.0,22,0.00,,,0.00,332,WeatherHawk,2013-01-18 16:50:00,
2013-01-18 09:52:00,59.4,20.5,30.21,NNE,15,12.0,15.0,22,0.00,,,0.00,300,WeatherHawk,2013-01-18 16:52:00,
2013-01-18 09:54:00,59.4,20.5,30.21,North,11,11.0,15.0,22,0.00,,,0.00,286,WeatherHawk,2013-01-18 16:54:00,
2013-01-18 09:57:00,59.5,19.6,30.21,NNE,14,15.0,15.0,21,0.00,,,0.00,314,WeatherHawk,2013-01-18 16:57:00,
2013-01-18 09:59:00,59.5,20.7,30.21,NNE,20,13.0,0.0,22,0.00,,,0.00,245,WeatherHawk,2013-01-18 16:59:00,
2013-01-18 10:01:00,59.7,20.8,30.21,NNE,22,10.0,0.0,22,0.00,,,0.00,292,WeatherHawk,2013-01-18 17:01:00,
2013-01-18 10:02:00,59.9,21.0,30.21,North,11,11.0,0.0,22,0.00,,,0.00,334,WeatherHawk,2013-01-18 17:02:00,
2013-01-18 10:05:00,60.1,20.0,30.21,NNE,17,11.0,0.0,21,0.00,,,0.00,363,WeatherHawk,2013-01-18 17:05:00,
2013-01-18 10:07:00,60.1,20.0,30.21,NNE,15,12.0,0.0,21,0.00,,,0.00,377,WeatherHawk,2013-01-18 17:07:00,
2013-01-18 10:08:00,60.3,20.2,30.21,NNE,20,14.0,0.0,21,0.00,,,0.00,401,WeatherHawk,2013-01-18 17:08:00,
2013-01-18 10:11:00,60.4,19.2,30.21,NNE,15,16.0,0.0,20,0.00,,,0.00,407,WeatherHawk,2013-01-18 17:11:00,
2013-01-18 10:12:00,60.4,19.2,30.21,NNE,15,16.0,0.0,20,0.00,,,0.00,407,WeatherHawk,2013-01-18 17:12:00,
2013-01-18 10:16:00,61.0,19.6,30.21,NNE,20,13.0,0.0,20,0.00,,,0.00,439,WeatherHawk,2013-01-18 17:16:00,
2013-01-18 10:17:00,61.0,19.6,30.21,NNE,20,13.0,0.0,20,0.00,,,0.00,439,WeatherHawk,2013-01-18 17:17:00,
2013-01-18 10:18:00,61.2,19.8,30.21,NNE,16,15.0,17.0,20,0.00,,,0.00,448,WeatherHawk,2013-01-18 17:18:00,
2013-01-18 10:21:00,61.2,19.8,30.21,NNE,24,15.0,-999.0,20,0.00,,,0.00,430,WeatherHawk,2013-01-18 17:21:00,
2013-01-18 10:24:00,61.5,20.1,30.21,North,7,16.0,17.0,20,0.00,,,0.00,442,WeatherHawk,2013-01-18 17:24:00,
2013-01-18 10:25:00,61.5,20.1,30.21,NNE,16,12.0,17.0,20,0.00,,,0.00,454,WeatherHawk,2013-01-18 17:25:00,
2013-01-18 10:26:00,61.5,20.1,30.21,NNE,12,12.0,17.0,20,0.00,,,0.00,461,WeatherHawk,2013-01-18 17:26:00,
2013-01-18 10:28:00,61.9,20.4,30.21,NNE,12,13.0,19.0,20,0.00,,,0.00,472,WeatherHawk,2013-01-18 17:28:00,
2013-01-18 10:31:00,62.1,20.5,30.21,NNE,15,13.0,19.0,20,0.00,,,0.00,453,WeatherHawk,2013-01-18 17:31:00,
2013-01-18 10:32:00,62.1,19.3,30.21,NNE,22,16.0,19.0,19,0.00,,,0.00,444,WeatherHawk,2013-01-18 17:32:00,
2013-01-18 10:35:00,62.2,19.5,30.21,NNE,16,16.0,19.0,19,0.00,,,0.00,448,WeatherHawk,2013-01-18 17:35:00,
2013-01-18 10:37:00,62.4,20.8,30.21,North,5,14.0,-999.0,20,0.00,,,0.00,425,WeatherHawk,2013-01-18 17:37:00,
2013-01-18 10:38:00,62.4,22.0,30.21,North,10,13.0,0.0,21,0.00,,,0.00,488,WeatherHawk,2013-01-18 17:38:00,
2013-01-18 10:40:00,62.4,20.8,30.21,NNE,12,15.0,0.0,20,0.00,,,0.00,486,WeatherHawk,2013-01-18 17:40:00,
2013-01-18 10:42:00,62.4,19.6,30.21,North,11,13.0,0.0,19,0.00,,,0.00,494,WeatherHawk,2013-01-18 17:42:00,
2013-01-18 10:45:00,62.8,21.1,30.21,North,6,16.0,0.0,20,0.00,,,0.00,502,WeatherHawk,2013-01-18 17:45:00,
2013-01-18 10:46:00,62.8,21.1,30.21,North,6,16.0,0.0,20,0.00,,,0.00,502,WeatherHawk,2013-01-18 17:46:00,
2013-01-18 10:48:00,62.8,19.9,30.21,North,10,14.0,0.0,19,0.00,,,0.00,505,WeatherHawk,2013-01-18 17:48:00,
2013-01-18 10:51:00,63.1,21.4,30.21,NNE,20,15.0,0.0,20,0.00,,,0.00,524,WeatherHawk,2013-01-18 17:51:00,
2013-01-18 10:55:00,63.1,20.2,30.21,North,9,15.0,0.0,19,0.00,,,0.00,536,WeatherHawk,2013-01-18 17:55:00,
2013-01-18 10:56:00,63.1,20.2,30.20,North,4,14.0,0.0,19,0.00,,,0.00,542,WeatherHawk,2013-01-18 17:56:00,
2013-01-18 10:58:00,63.3,20.4,30.20,North,10,18.0,19.0,19,0.00,,,0.00,545,WeatherHawk,2013-01-18 17:58:00,
2013-01-18 11:01:00,63.3,19.1,30.20,North,5,17.0,19.0,18,0.00,,,0.00,555,WeatherHawk,2013-01-18 18:01:00,
2013-01-18 11:02:00,63.7,19.4,30.20,North,1,16.0,19.0,18,0.00,,,0.00,533,WeatherHawk,2013-01-18 18:02:00,
2013-01-18 11:04:00,63.7,19.4,30.21,North,3,14.0,19.0,18,0.00,,,0.00,518,WeatherHawk,2013-01-18 18:04:00,
2013-01-18 11:06:00,63.9,20.8,30.20,NNE,12,13.0,-999.0,19,0.00,,,0.00,525,WeatherHawk,2013-01-18 18:06:00,
2013-01-18 11:10:00,64.0,19.7,30.20,North,3,17.0,21.0,18,0.00,,,0.00,555,WeatherHawk,2013-01-18 18:10:00,
2013-01-18 11:11:00,64.0,19.7,30.20,North,5,17.0,21.0,18,0.00,,,0.00,551,WeatherHawk,2013-01-18 18:11:00,
2013-01-18 11:16:00,64.4,21.3,30.20,NNE,14,14.0,21.0,19,0.00,,,0.00,569,WeatherHawk,2013-01-18 18:16:00,
2013-01-18 11:17:00,64.4,20.0,30.20,NNE,17,13.0,19.0,18,0.00,,,0.00,562,WeatherHawk,2013-01-18 18:17:00,
2013-01-18 11:19:00,64.6,21.4,30.20,North,8,13.0,19.0,19,0.00,,,0.00,570,WeatherHawk,2013-01-18 18:19:00,
2013-01-18 11:21:00,64.6,20.1,30.20,North,357,16.0,19.0,18,0.00,,,0.00,577,WeatherHawk,2013-01-18 18:21:00,
2013-01-18 11:22:00,64.6,21.4,30.20,North,7,13.0,19.0,19,0.00,,,0.00,587,WeatherHawk,2013-01-18 18:22:00,
2013-01-18 11:25:00,64.6,20.1,30.20,North,6,11.0,19.0,18,0.00,,,0.00,585,WeatherHawk,2013-01-18 18:25:00,
2013-01-18 11:27:00,64.9,20.4,30.20,NNE,19,15.0,0.0,18,0.00,,,0.00,576,WeatherHawk,2013-01-18 18:27:00,
2013-01-18 11:28:00,64.8,20.3,30.20,NNE,13,16.0,17.0,18,0.00,,,0.00,578,WeatherHawk,2013-01-18 18:28:00,
2013-01-18 11:29:00,64.6,20.1,30.20,NNE,22,14.0,17.0,18,0.00,,,0.00,578,WeatherHawk,2013-01-18 18:29:00,
2013-01-18 11:31:00,64.6,20.1,30.20,North,6,16.0,-999.0,18,0.00,,,0.00,581,WeatherHawk,2013-01-18 18:31:00,
2013-01-18 11:32:00,64.6,20.1,30.20,NNE,15,14.0,17.0,18,0.00,,,0.00,586,WeatherHawk,2013-01-18 18:32:00,
2013-01-18 11:34:00,64.8,20.3,30.20,North,8,13.0,17.0,18,0.00,,,0.00,579,WeatherHawk,2013-01-18 18:34:00,
2013-01-18 11:35:00,64.9,20.4,30.20,North,11,13.0,17.0,18,0.00,,,0.00,584,WeatherHawk,2013-01-18 18:35:00,
2013-01-18 11:37:00,65.1,20.6,30.20,North,8,14.0,0.0,18,0.00,,,0.00,579,WeatherHawk,2013-01-18 18:37:00,
2013-01-18 11:39:00,65.3,20.7,30.20,North,5,14.0,19.0,18,0.00,,,0.00,596,WeatherHawk,2013-01-18 18:39:00,
2013-01-18 11:42:00,65.5,20.9,30.20,North,4,14.0,19.0,18,0.00,,,0.00,593,WeatherHawk,2013-01-18 18:42:00,
2013-01-18 11:43:00,65.5,20.9,30.20,North,1,13.0,19.0,18,0.00,,,0.00,596,WeatherHawk,2013-01-18 18:43:00,
2013-01-18 11:45:00,65.5,20.9,30.20,North,9,13.0,19.0,18,0.00,,,0.00,599,WeatherHawk,2013-01-18 18:45:00,
2013-01-18 11:48:00,65.7,19.7,30.19,North,359,13.0,16.0,17,0.00,,,0.00,607,WeatherHawk,2013-01-18 18:48:00,
2013-01-18 11:49:00,65.8,19.8,30.19,North,353,13.0,16.0,17,0.00,,,0.00,607,WeatherHawk,2013-01-18 18:49:00,
2013-01-18 11:51:00,65.8,21.2,30.19,North,5,14.0,16.0,18,0.00,,,0.00,609,WeatherHawk,2013-01-18 18:51:00,
2013-01-18 11:53:00,66.2,20.1,30.19,North,4,12.0,16.0,17,0.00,,,0.00,610,WeatherHawk,2013-01-18 18:53:00,
2013-01-18 11:54:00,66.2,20.1,30.19,North,8,14.0,16.0,17,0.00,,,0.00,616,WeatherHawk,2013-01-18 18:54:00,
2013-01-18 11:56:00,66.0,20.0,30.19,North,358,15.0,16.0,17,0.00,,,0.00,615,WeatherHawk,2013-01-18 18:56:00,
2013-01-18 12:00:00,66.0,20.0,30.19,NNE,12,14.0,18.0,17,0.00,,,0.00,618,WeatherHawk,2013-01-18 19:00:00,
2013-01-18 12:01:00,66.0,20.0,30.19,NNE,12,14.0,18.0,17,0.00,,,0.00,618,WeatherHawk,2013-01-18 19:01:00,
2013-01-18 12:03:00,66.2,21.5,30.19,NNE,13,12.0,18.0,18,0.00,,,0.00,621,WeatherHawk,2013-01-18 19:03:00,
2013-01-18 12:05:00,66.2,20.1,30.18,NNE,15,12.0,18.0,17,0.00,,,0.00,619,WeatherHawk,2013-01-18 19:05:00,
2013-01-18 12:08:00,66.4,18.8,30.18,NNE,25,15.0,0.0,16,0.00,,,0.00,627,WeatherHawk,2013-01-18 19:08:00,
2013-01-18 12:10:00,66.2,20.1,30.18,NNE,16,15.0,0.0,17,0.00,,,0.00,634,WeatherHawk,2013-01-18 19:10:00,
2013-01-18 12:11:00,66.2,20.1,30.18,NNE,16,13.0,0.0,17,0.00,,,0.00,633,WeatherHawk,2013-01-18 19:11:00,
2013-01-18 12:14:00,66.4,18.8,30.18,NNE,21,17.0,0.0,16,0.00,,,0.00,638,WeatherHawk,2013-01-18 19:14:00,
2013-01-18 12:16:00,66.4,18.8,30.18,NNE,18,17.0,0.0,16,0.00,,,0.00,637,WeatherHawk,2013-01-18 19:16:00,
2013-01-18 12:19:00,66.7,19.1,30.17,NNE,14,13.0,0.0,16,0.00,,,0.00,646,WeatherHawk,2013-01-18 19:19:00,
2013-01-18 12:20:00,66.7,19.1,30.17,NNE,17,15.0,0.0,16,0.00,,,0.00,647,WeatherHawk,2013-01-18 19:20:00,
2013-01-18 12:21:00,66.7,19.1,30.17,NNE,17,15.0,-999.0,16,0.00,,,0.00,647,WeatherHawk,2013-01-18 19:21:00,
2013-01-18 12:24:00,66.6,19.0,30.17,NNE,20,17.0,0.0,16,0.00,,,0.00,646,WeatherHawk,2013-01-18 19:24:00,
2013-01-18 12:25:00,66.6,20.4,30.17,NNE,16,18.0,0.0,17,0.00,,,0.00,643,WeatherHawk,2013-01-18 19:25:00,
2013-01-18 12:26:00,66.6,20.4,30.17,NNE,16,18.0,0.0,17,0.00,,,0.00,643,WeatherHawk,2013-01-18 19:26:00,
2013-01-18 12:30:00,66.7,19.1,30.17,NNE,25,18.0,0.0,16,0.00,,,0.00,658,WeatherHawk,2013-01-18 19:30:00,
2013-01-18 12:32:00,66.6,19.0,30.16,North,3,15.0,0.0,16,0.00,,,0.00,658,WeatherHawk,2013-01-18 19:32:00,
2013-01-18 12:34:00,66.7,19.1,30.16,NNE,15,11.0,0.0,16,0.00,,,0.00,665,WeatherHawk,2013-01-18 19:34:00,
2013-01-18 12:36:00,66.9,20.7,30.16,North,11,14.0,0.0,17,0.00,,,0.00,669,WeatherHawk,2013-01-18 19:36:00,
2013-01-18 12:40:00,67.3,19.6,30.16,NNE,23,11.0,0.0,16,0.00,,,0.00,654,WeatherHawk,2013-01-18 19:40:00,
2013-01-18 12:41:00,67.3,19.6,30.16,NNE,23,11.0,0.0,16,0.00,,,0.00,654,WeatherHawk,2013-01-18 19:41:00,
2013-01-18 12:46:00,66.9,19.3,30.16,North,10,12.0,-999.0,16,0.00,,,0.00,576,WeatherHawk,2013-01-18 19:46:00,
2013-01-18 12:51:00,67.1,19.4,30.15,North,5,15.0,0.0,16,0.00,,,0.00,608,WeatherHawk,2013-01-18 19:51:00,
2013-01-18 12:52:00,67.1,19.4,30.15,North,355,13.0,0.0,16,0.00,,,0.00,699,WeatherHawk,2013-01-18 19:52:00,
2013-01-18 12:54:00,67.3,21.0,30.15,North,3,14.0,0.0,17,0.00,,,0.00,680,WeatherHawk,2013-01-18 19:54:00,
2013-01-18 12:56:00,67.3,21.0,30.15,North,9,13.0,0.0,17,0.00,,,0.00,672,WeatherHawk,2013-01-18 19:56:00,
2013-01-18 13:00:00,67.5,19.7,30.15,NNE,13,15.0,0.0,16,0.00,,,0.00,672,WeatherHawk,2013-01-18 20:00:00,
2013-01-18 13:01:00,67.3,19.6,30.15,North,9,14.0,0.0,16,0.00,,,0.00,670,WeatherHawk,2013-01-18 20:01:00,
2013-01-18 13:02:00,67.3,19.6,30.15,North,7,13.0,0.0,16,0.00,,,0.00,671,WeatherHawk,2013-01-18 20:02:00,
2013-01-18 13:06:00,67.8,21.4,30.15,North,5,11.0,0.0,17,0.00,,,0.00,668,WeatherHawk,2013-01-18 20:06:00,
2013-01-18 13:07:00,68.0,20.1,30.14,North,5,14.0,0.0,16,0.00,,,0.00,666,WeatherHawk,2013-01-18 20:07:00,
2013-01-18 13:09:00,67.8,20.0,30.14,North,351,13.0,17.0,16,0.00,,,0.00,664,WeatherHawk,2013-01-18 20:09:00,
2013-01-18 13:12:00,68.2,20.3,30.14,NNE,17,14.0,-999.0,16,0.00,,,0.00,663,WeatherHawk,2013-01-18 20:12:00,
2013-01-18 13:17:00,68.2,20.3,30.14,NNE,20,13.0,-999.0,16,0.00,,,0.00,619,WeatherHawk,2013-01-18 20:17:00,
2013-01-18 13:18:00,68.0,20.1,30.14,NNE,15,12.0,15.0,16,0.00,,,0.00,659,WeatherHawk,2013-01-18 20:18:00,
2013-01-18 13:19:00,68.0,20.1,30.14,North,10,13.0,15.0,16,0.00,,,0.00,656,WeatherHawk,2013-01-18 20:19:00,
2013-01-18 13:22:00,68.0,20.1,30.14,North,358,15.0,-999.0,16,0.00,,,0.00,656,WeatherHawk,2013-01-18 20:22:00,
2013-01-18 13:26:00,68.5,22.0,30.14,NNW,347,11.0,15.0,17,0.00,,,0.00,630,WeatherHawk,2013-01-18 20:26:00,
2013-01-18 13:27:00,68.5,22.0,30.14,NNW,347,11.0,15.0,17,0.00,,,0.00,630,WeatherHawk,2013-01-18 20:27:00,
2013-01-18 13:28:00,68.9,20.9,30.13,NNE,15,13.0,17.0,16,0.00,,,0.00,604,WeatherHawk,2013-01-18 20:28:00,
2013-01-18 13:33:00,68.7,20.7,30.13,North,351,12.0,17.0,16,0.00,,,0.00,594,WeatherHawk,2013-01-18 20:33:00,
2013-01-18 13:34:00,68.5,22.0,30.13,NNW,348,11.0,17.0,17,0.00,,,0.00,575,WeatherHawk,2013-01-18 20:34:00,
2013-01-18 13:36:00,68.7,22.1,30.13,NNW,344,11.0,17.0,17,0.00,,,0.00,583,WeatherHawk,2013-01-18 20:36:00,
2013-01-18 13:37:00,68.7,22.1,30.13,North,352,12.0,-999.0,17,0.00,,,0.00,593,WeatherHawk,2013-01-18 20:37:00,
2013-01-18 13:39:00,68.9,22.3,30.13,North,352,12.0,14.0,17,0.00,,,0.00,614,WeatherHawk,2013-01-18 20:39:00,
2013-01-18 13:41:00,68.7,22.1,30.13,North,354,11.0,14.0,17,0.00,,,0.00,630,WeatherHawk,2013-01-18 20:41:00,
2013-01-18 13:42:00,68.7,20.7,30.13,North,357,11.0,14.0,16,0.00,,,0.00,634,WeatherHawk,2013-01-18 20:42:00,
2013-01-18 13:44:00,68.7,20.7,30.13,NE,34,12.0,14.0,16,0.00,,,0.00,646,WeatherHawk,2013-01-18 20:44:00,
2013-01-18 13:46:00,68.7,20.7,30.13,North,349,11.0,14.0,16,0.00,,,0.00,640,WeatherHawk,2013-01-18 20:46:00,
2013-01-18 13:47:00,68.7,20.7,30.13,North,349,11.0,-999.0,16,0.00,,,0.00,640,WeatherHawk,2013-01-18 20:47:00,
2013-01-18 13:48:00,68.9,22.3,30.13,North,350,9.0,14.0,17,0.00,,,0.00,635,WeatherHawk,2013-01-18 20:48:00,
2013-01-18 13:50:00,69.1,21.0,30.13,North,358,7.0,14.0,16,0.00,,,0.00,631,WeatherHawk,2013-01-18 20:50:00,
2013-01-18 13:52:00,69.1,21.0,30.13,North,8,10.0,14.0,16,0.00,,,0.00,627,WeatherHawk,2013-01-18 20:52:00,
2013-01-18 13:55:00,69.3,21.2,30.13,North,11,11.0,14.0,16,0.00,,,0.00,621,WeatherHawk,2013-01-18 20:55:00,
2013-01-18 13:57:00,69.1,21.0,30.13,North,3,11.0,14.0,16,0.00,,,0.00,617,WeatherHawk,2013-01-18 20:57:00,
2013-01-18 14:02:00,69.1,21.0,30.12,North,356,10.0,-999.0,16,0.00,,,0.00,609,WeatherHawk,2013-01-18 21:02:00,
2013-01-18 14:06:00,69.3,21.2,30.12,NNW,338,8.0,13.0,16,0.00,,,0.00,603,WeatherHawk,2013-01-18 21:06:00,
2013-01-18 14:07:00,69.3,22.6,30.12,North,359,9.0,-999.0,17,0.00,,,0.00,601,WeatherHawk,2013-01-18 21:07:00,
2013-01-18 14:08:00,69.4,22.7,30.12,NNW,341,12.0,14.0,17,0.00,,,0.00,600,WeatherHawk,2013-01-18 21:08:00,
2013-01-18 14:09:00,69.6,21.4,30.12,NNW,333,13.0,14.0,16,0.00,,,0.00,594,WeatherHawk,2013-01-18 21:09:00,
2013-01-18 14:13:00,69.6,22.9,30.12,NNW,329,11.0,14.0,17,0.00,,,0.00,592,WeatherHawk,2013-01-18 21:13:00,
2013-01-18 14:14:00,69.4,22.7,30.12,NNW,341,13.0,14.0,17,0.00,,,0.00,588,WeatherHawk,2013-01-18 21:14:00,
2013-01-18 14:17:00,69.4,22.7,30.12,North,350,8.0,14.0,17,0.00,,,0.00,580,WeatherHawk,2013-01-18 21:17:00,
2013-01-18 14:19:00,69.4,21.3,30.12,North,355,10.0,14.0,16,0.00,,,0.00,579,WeatherHawk,2013-01-18 21:19:00,
2013-01-18 14:22:00,69.4,22.7,30.12,NNW,331,10.0,14.0,17,0.00,,,0.00,566,WeatherHawk,2013-01-18 21:22:00,
2013-01-18 14:26:00,69.8,21.6,30.12,North,356,10.0,14.0,16,0.00,,,0.00,561,WeatherHawk,2013-01-18 21:26:00,
2013-01-18 14:27:00,70.0,21.7,30.12,North,349,11.0,-999.0,16,0.00,,,0.00,566,WeatherHawk,2013-01-18 21:27:00,
2013-01-18 14:28:00,70.0,21.7,30.12,North,0,11.0,15.0,16,0.00,,,0.00,564,WeatherHawk,2013-01-18 21:28:00,
2013-01-18 14:31:00,69.8,21.6,30.12,NNW,338,11.0,15.0,16,0.00,,,0.00,558,WeatherHawk,2013-01-18 21:31:00,
2013-01-18 14:32:00,69.8,21.6,30.12,NNW,347,9.0,15.0,16,0.00,,,0.00,557,WeatherHawk,2013-01-18 21:32:00,
2013-01-18 14:34:00,70.2,21.9,30.12,NNW,330,13.0,15.0,16,0.00,,,0.00,554,WeatherHawk,2013-01-18 21:34:00,
2013-01-18 14:36:00,70.2,21.9,30.12,NW,325,12.0,15.0,16,0.00,,,0.00,550,WeatherHawk,2013-01-18 21:36:00,
2013-01-18 14:37:00,70.2,23.3,30.12,NW,326,13.0,15.0,17,0.00,,,0.00,546,WeatherHawk,2013-01-18 21:37:00,
2013-01-18 14:40:00,70.0,21.7,30.12,NNW,332,14.0,15.0,16,0.00,,,0.00,540,WeatherHawk,2013-01-18 21:40:00,
2013-01-18 14:41:00,70.0,21.7,30.12,NNW,337,13.0,15.0,16,0.00,,,0.00,539,WeatherHawk,2013-01-18 21:41:00,
2013-01-18 14:42:00,70.0,23.2,30.12,NNW,347,13.0,15.0,17,0.00,,,0.00,536,WeatherHawk,2013-01-18 21:42:00,
2013-01-18 14:43:00,70.0,21.7,30.12,NNW,345,11.0,15.0,16,0.00,,,0.00,533,WeatherHawk,2013-01-18 21:43:00,
2013-01-18 14:46:00,70.0,21.7,30.12,North,349,7.0,15.0,16,0.00,,,0.00,530,WeatherHawk,2013-01-18 21:46:00,
2013-01-18 14:47:00,69.8,21.6,30.12,North,0,10.0,15.0,16,0.00,,,0.00,528,WeatherHawk,2013-01-18 21:47:00,
2013-01-18 14:48:00,70.0,21.7,30.12,North,352,9.0,14.0,16,0.00,,,0.00,525,WeatherHawk,2013-01-18 21:48:00,
2013-01-18 14:50:00,70.2,21.9,30.12,NNW,347,10.0,14.0,16,0.00,,,0.00,520,WeatherHawk,2013-01-18 21:50:00,
2013-01-18 14:53:00,70.2,20.4,30.12,North,359,11.0,14.0,15,0.00,,,0.00,512,WeatherHawk,2013-01-18 21:53:00,
2013-01-18 14:54:00,70.2,20.4,30.12,North,357,11.0,14.0,15,0.00,,,0.00,509,WeatherHawk,2013-01-18 21:54:00,
2013-01-18 14:56:00,70.0,20.2,30.12,North,7,10.0,14.0,15,0.00,,,0.00,505,WeatherHawk,2013-01-18 21:56:00,
2013-01-18 14:57:00,70.0,21.7,30.12,North,351,7.0,0.0,16,0.00,,,0.00,503,WeatherHawk,2013-01-18 21:57:00,
2013-01-18 15:01:00,70.2,21.9,30.12,NNW,337,12.0,13.0,16,0.00,,,0.00,494,WeatherHawk,2013-01-18 22:01:00,
2013-01-18 15:02:00,70.2,21.9,30.12,NNW,330,11.0,-999.0,16,0.00,,,0.00,491,WeatherHawk,2013-01-18 22:02:00,
2013-01-18 15:04:00,70.3,20.5,30.12,North,359,10.0,13.0,15,0.00,,,0.00,485,WeatherHawk,2013-01-18 22:04:00,
2013-01-18 15:07:00,70.2,21.9,30.12,North,4,13.0,13.0,16,0.00,,,0.00,481,WeatherHawk,2013-01-18 22:07:00,
2013-01-18 15:08:00,70.3,20.5,30.12,North,352,12.0,13.0,15,0.00,,,0.00,478,WeatherHawk,2013-01-18 22:08:00,
2013-01-18 15:09:00,70.3,22.0,30.12,NNW,345,11.0,13.0,16,0.00,,,0.00,474,WeatherHawk,2013-01-18 22:09:00,
2013-01-18 15:12:00,70.2,20.4,30.12,NNW,346,11.0,13.0,15,0.00,,,0.00,467,WeatherHawk,2013-01-18 22:12:00,
2013-01-18 15:16:00,70.2,20.4,30.12,NNW,344,12.0,13.0,15,0.00,,,0.00,461,WeatherHawk,2013-01-18 22:16:00,
2013-01-18 15:18:00,70.2,20.4,30.12,North,352,8.0,13.0,15,0.00,,,0.00,453,WeatherHawk,2013-01-18 22:18:00,
2013-01-18 15:19:00,70.3,20.5,30.12,NNW,344,8.0,13.0,15,0.00,,,0.00,451,WeatherHawk,2013-01-18 22:19:00,
2013-01-18 15:20:00,70.3,20.5,30.12,NNW,346,9.0,13.0,15,0.00,,,0.00,449,WeatherHawk,2013-01-18 22:20:00,
2013-01-18 15:24:00,70.3,22.0,30.12,North,358,9.0,13.0,16,0.00,,,0.00,440,WeatherHawk,2013-01-18 22:24:00,
2013-01-18 15:25:00,70.3,22.0,30.11,NNW,345,11.0,13.0,16,0.00,,,0.00,436,WeatherHawk,2013-01-18 22:25:00,
2013-01-18 15:26:00,70.3,22.0,30.11,North,5,11.0,13.0,16,0.00,,,0.00,434,WeatherHawk,2013-01-18 22:26:00,
2013-01-18 15:27:00,70.2,21.9,30.11,North,3,11.0,-999.0,16,0.00,,,0.00,433,WeatherHawk,2013-01-18 22:27:00,
2013-01-18 15:29:00,70.3,22.0,30.11,NNW,348,9.0,13.0,16,0.00,,,0.00,426,WeatherHawk,2013-01-18 22:29:00,
2013-01-18 15:32:00,70.3,22.0,30.11,North,0,10.0,13.0,16,0.00,,,0.00,413,WeatherHawk,2013-01-18 22:32:00,
2013-01-18 15:33:00,70.5,22.2,30.11,North,354,6.0,13.0,16,0.00,,,0.00,411,WeatherHawk,2013-01-18 22:33:00,
2013-01-18 15:36:00,70.5,22.2,30.11,NNW,343,11.0,13.0,16,0.00,,,0.00,389,WeatherHawk,2013-01-18 22:36:00,
2013-01-18 15:37:00,70.5,22.2,30.11,NNW,344,13.0,13.0,16,0.00,,,0.00,386,WeatherHawk,2013-01-18 22:37:00,
2013-01-18 15:38:00,70.3,22.0,30.11,NNW,348,10.0,13.0,16,0.00,,,0.00,382,WeatherHawk,2013-01-18 22:38:00,
2013-01-18 15:42:00,70.5,22.2,30.11,North,353,9.0,13.0,16,0.00,,,0.00,369,WeatherHawk,2013-01-18 22:42:00,
2013-01-18 15:47:00,70.7,20.8,30.11,NNW,345,9.0,13.0,15,0.00,,,0.00,367,WeatherHawk,2013-01-18 22:47:00,
2013-01-18 15:48:00,70.5,20.6,30.11,NNW,344,11.0,14.0,15,0.00,,,0.00,368,WeatherHawk,2013-01-18 22:48:00,
2013-01-18 15:50:00,70.5,20.6,30.11,North,354,10.0,14.0,15,0.00,,,0.00,357,WeatherHawk,2013-01-18 22:50:00,
2013-01-18 15:52:00,70.3,22.0,30.11,NNW,346,11.0,-999.0,16,0.00,,,0.00,311,WeatherHawk,2013-01-18 22:52:00,
2013-01-18 15:54:00,70.5,22.2,30.11,NNW,342,10.0,14.0,16,0.00,,,0.00,319,WeatherHawk,2013-01-18 22:54:00,
2013-01-18 15:55:00,70.5,22.2,30.11,North,353,7.0,14.0,16,0.00,,,0.00,311,WeatherHawk,2013-01-18 22:55:00,
2013-01-18 15:57:00,70.7,23.8,30.11,NNW,342,9.0,14.0,17,0.00,,,0.00,318,WeatherHawk,2013-01-18 22:57:00,
2013-01-18 15:58:00,70.7,23.8,30.11,NNW,337,10.0,12.0,17,0.00,,,0.00,323,WeatherHawk,2013-01-18 22:58:00,
2013-01-18 15:59:00,70.7,22.3,30.11,NNW,341,11.0,12.0,16,0.00,,,0.00,323,WeatherHawk,2013-01-18 22:59:00,
2013-01-18 16:02:00,70.5,22.2,30.11,North,350,12.0,12.0,16,0.00,,,0.00,323,WeatherHawk,2013-01-18 23:02:00,
2013-01-18 16:05:00,70.3,23.5,30.11,North,354,11.0,12.0,17,0.00,,,0.00,320,WeatherHawk,2013-01-18 23:05:00,
2013-01-18 16:06:00,70.5,22.2,30.11,North,357,9.0,12.0,16,0.00,,,0.00,310,WeatherHawk,2013-01-18 23:06:00,
2013-01-18 16:07:00,70.5,22.2,30.11,North,357,9.0,12.0,16,0.00,,,0.00,310,WeatherHawk,2013-01-18 23:07:00,
2013-01-18 16:08:00,70.5,22.2,30.11,North,353,11.0,13.0,16,0.00,,,0.00,301,WeatherHawk,2013-01-18 23:08:00,
2013-01-18 16:12:00,70.3,22.0,30.11,North,354,11.0,13.0,16,0.00,,,0.00,290,WeatherHawk,2013-01-18 23:12:00,
2013-01-18 16:13:00,70.3,22.0,30.11,North,351,7.0,13.0,16,0.00,,,0.00,284,WeatherHawk,2013-01-18 23:13:00,
2013-01-18 16:17:00,70.3,22.0,30.11,North,352,11.0,13.0,16,0.00,,,0.00,272,WeatherHawk,2013-01-18 23:17:00,
2013-01-18 16:18:00,70.3,22.0,30.11,North,0,10.0,13.0,16,0.00,,,0.00,265,WeatherHawk,2013-01-18 23:18:00,
2013-01-18 16:20:00,70.3,23.5,30.11,North,1,11.0,13.0,17,0.00,,,0.00,258,WeatherHawk,2013-01-18 23:20:00,
2013-01-18 16:22:00,70.3,23.5,30.11,North,357,9.0,13.0,17,0.00,,,0.00,255,WeatherHawk,2013-01-18 23:22:00,
2013-01-18 16:24:00,70.3,22.0,30.11,North,353,11.0,13.0,16,0.00,,,0.00,242,WeatherHawk,2013-01-18 23:24:00,
2013-01-18 16:25:00,70.3,22.0,30.11,NNW,347,10.0,13.0,16,0.00,,,0.00,239,WeatherHawk,2013-01-18 23:25:00,
2013-01-18 16:27:00,70.2,21.9,30.11,North,349,11.0,-999.0,16,0.00,,,0.00,238,WeatherHawk,2013-01-18 23:27:00,
2013-01-18 16:29:00,70.2,23.3,30.11,North,355,11.0,13.0,17,0.00,,,0.00,203,WeatherHawk,2013-01-18 23:29:00,
2013-01-18 16:32:00,70.2,23.3,30.11,NNW,348,9.0,-999.0,17,0.00,,,0.00,232,WeatherHawk,2013-01-18 23:32:00,
2013-01-18 16:33:00,70.0,23.2,30.11,North,1,9.0,13.0,17,0.00,,,0.00,230,WeatherHawk,2013-01-18 23:33:00,
2013-01-18 16:37:00,70.0,23.2,30.11,North,0,9.0,13.0,17,0.00,,,0.00,228,WeatherHawk,2013-01-18 23:37:00,
2013-01-18 16:38:00,70.0,24.5,30.11,North,356,10.0,12.0,18,0.00,,,0.00,227,WeatherHawk,2013-01-18 23:38:00,
2013-01-18 16:42:00,69.8,25.7,30.11,North,354,7.0,12.0,19,0.00,,,0.00,218,WeatherHawk,2013-01-18 23:42:00,
2013-01-18 16:44:00,69.8,25.7,30.11,North,355,7.0,12.0,19,0.00,,,0.00,165,WeatherHawk,2013-01-18 23:44:00,
2013-01-18 16:47:00,69.6,25.5,30.11,North,357,10.0,12.0,19,0.00,,,0.00,205,WeatherHawk,2013-01-18 23:47:00,
2013-01-18 16:52:00,69.4,25.4,30.11,North,359,9.0,-999.0,19,0.00,,,0.00,187,WeatherHawk,2013-01-18 23:52:00,
2013-01-18 16:54:00,69.4,25.4,30.11,North,351,10.0,12.0,19,0.00,,,0.00,181,WeatherHawk,2013-01-18 23:54:00,
2013-01-18 16:57:00,69.3,25.2,30.11,North,350,9.0,12.0,19,0.00,,,0.00,172,WeatherHawk,2013-01-18 23:57:00,
2013-01-18 17:01:00,69.1,23.8,30.11,North,355,10.0,12.0,18,0.00,,,0.00,155,WeatherHawk,2013-01-19 00:01:00,
2013-01-18 17:02:00,69.1,25.1,30.11,North,356,9.0,12.0,19,0.00,,,0.00,154,WeatherHawk,2013-01-19 00:02:00,
2013-01-18 17:03:00,69.1,23.8,30.11,North,0,10.0,12.0,18,0.00,,,0.00,145,WeatherHawk,2013-01-19 00:03:00,
2013-01-18 17:08:00,68.7,24.8,30.11,North,1,10.0,11.0,19,0.00,,,0.00,121,WeatherHawk,2013-01-19 00:08:00,
2013-01-18 17:09:00,68.7,24.8,30.11,North,356,11.0,11.0,19,0.00,,,0.00,111,WeatherHawk,2013-01-19 00:09:00,
2013-01-18 17:12:00,68.5,24.6,30.11,North,355,10.0,11.0,19,0.00,,,0.00,106,WeatherHawk,2013-01-19 00:12:00,
2013-01-18 17:13:00,68.4,24.5,30.11,North,355,9.0,11.0,19,0.00,,,0.00,105,WeatherHawk,2013-01-19 00:13:00,
2013-01-18 17:15:00,68.2,24.4,30.11,North,0,9.0,11.0,19,0.00,,,0.00,99,WeatherHawk,2013-01-19 00:15:00,
2013-01-18 17:17:00,68.0,25.4,30.11,North,349,9.0,-999.0,20,0.00,,,0.00,87,WeatherHawk,2013-01-19 00:17:00,
2013-01-18 17:19:00,67.8,25.3,30.11,North,354,9.0,12.0,20,0.00,,,0.00,94,WeatherHawk,2013-01-19 00:19:00,
2013-01-18 17:20:00,67.8,25.3,30.11,North,359,9.0,12.0,20,0.00,,,0.00,87,WeatherHawk,2013-01-19 00:20:00,
2013-01-18 17:22:00,67.6,25.1,30.11,North,355,10.0,12.0,20,0.00,,,0.00,96,WeatherHawk,2013-01-19 00:22:00,
2013-01-18 17:26:00,67.3,26.0,30.11,North,353,7.0,12.0,21,0.00,,,0.00,87,WeatherHawk,2013-01-19 00:26:00,
2013-01-18 17:30:00,67.1,25.9,30.11,North,358,8.0,10.0,21,0.00,,,0.00,76,WeatherHawk,2013-01-19 00:30:00,
2013-01-18 17:31:00,66.9,25.7,30.11,North,357,9.0,10.0,21,0.00,,,0.00,62,WeatherHawk,2013-01-19 00:31:00,
2013-01-18 17:32:00,66.9,25.7,30.11,North,357,9.0,-999.0,21,0.00,,,0.00,62,WeatherHawk,2013-01-19 00:32:00,
2013-01-18 17:35:00,66.6,25.4,30.11,North,356,8.0,10.0,21,0.00,,,0.00,46,WeatherHawk,2013-01-19 00:35:00,
2013-01-18 17:37:00,66.4,26.4,30.11,North,354,8.0,0.0,22,0.00,,,0.00,41,WeatherHawk,2013-01-19 00:37:00,
2013-01-18 17:41:00,66.0,26.1,30.11,North,356,7.0,10.0,22,0.00,,,0.00,48,WeatherHawk,2013-01-19 00:41:00,
2013-01-18 17:42:00,66.0,26.1,30.11,North,353,8.0,10.0,22,0.00,,,0.00,46,WeatherHawk,2013-01-19 00:42:00,
2013-01-18 17:43:00,65.8,25.9,30.11,North,354,7.0,10.0,22,0.00,,,0.00,43,WeatherHawk,2013-01-19 00:43:00,
2013-01-18 17:47:00,65.7,25.8,30.11,North,354,7.0,10.0,22,0.00,,,0.00,36,WeatherHawk,2013-01-19 00:47:00,
2013-01-18 17:48:00,65.5,26.7,30.11,North,358,7.0,9.0,23,0.00,,,0.00,27,WeatherHawk,2013-01-19 00:48:00,
2013-01-18 17:52:00,65.3,25.5,30.11,North,357,8.0,9.0,22,0.00,,,0.00,21,WeatherHawk,2013-01-19 00:52:00,
2013-01-18 17:53:00,65.3,26.6,30.11,North,356,7.0,9.0,23,0.00,,,0.00,17,WeatherHawk,2013-01-19 00:53:00,
2013-01-18 17:54:00,65.1,26.4,30.11,North,357,8.0,9.0,23,0.00,,,0.00,12,WeatherHawk,2013-01-19 00:54:00,
2013-01-18 17:56:00,65.1,26.4,30.11,North,353,8.0,9.0,23,0.00,,,0.00,10,WeatherHawk,2013-01-19 00:56:00,
2013-01-18 17:57:00,65.1,26.4,30.11,North,353,8.0,-999.0,23,0.00,,,0.00,10,WeatherHawk,2013-01-19 00:57:00,
2013-01-18 18:00:00,64.6,25.9,30.11,North,355,7.0,9.0,23,0.00,,,0.00,7,WeatherHawk,2013-01-19 01:00:00,
2013-01-18 18:02:00,64.6,25.9,30.11,North,355,7.0,9.0,23,0.00,,,0.00,4,WeatherHawk,2013-01-19 01:02:00,
2013-01-18 18:03:00,64.4,25.8,30.11,North,357,8.0,9.0,23,0.00,,,0.00,4,WeatherHawk,2013-01-19 01:03:00,
2013-01-18 18:07:00,64.4,24.7,30.11,North,359,7.0,9.0,22,0.00,,,0.00,3,WeatherHawk,2013-01-19 01:07:00,
2013-01-18 18:13:00,63.9,25.3,30.11,North,356,6.0,9.0,23,0.00,,,0.00,3,WeatherHawk,2013-01-19 01:13:00,
2013-01-18 18:15:00,63.9,25.3,30.11,North,355,7.0,9.0,23,0.00,,,0.00,0,WeatherHawk,2013-01-19 01:15:00,
2013-01-18 18:16:00,63.9,25.3,30.11,North,352,7.0,9.0,23,0.00,,,0.00,0,WeatherHawk,2013-01-19 01:16:00,
2013-01-18 18:19:00,63.7,25.2,30.11,North,356,6.0,7.0,23,0.00,,,0.00,0,WeatherHawk,2013-01-19 01:19:00,
2013-01-18 18:20:00,63.5,25.0,30.11,North,0,6.0,7.0,23,0.00,,,0.00,0,WeatherHawk,2013-01-19 01:20:00,
2013-01-18 18:21:00,63.3,24.9,30.11,North,356,6.0,-999.0,23,0.00,,,0.00,0,WeatherHawk,2013-01-19 01:21:00,
2013-01-18 18:22:00,63.3,24.9,30.11,North,356,6.0,7.0,23,0.00,,,0.00,0,WeatherHawk,2013-01-19 01:22:00,
2013-01-18 18:26:00,62.6,25.3,30.12,North,356,6.0,7.0,24,0.00,,,0.00,1,WeatherHawk,2013-01-19 01:26:00,
2013-01-18 18:27:00,62.6,25.3,30.12,North,357,6.0,0.0,24,0.00,,,0.00,0,WeatherHawk,2013-01-19 01:27:00,
2013-01-18 18:28:00,62.6,25.3,30.12,North,355,6.0,0.0,24,0.00,,,0.00,0,WeatherHawk,2013-01-19 01:28:00,
2013-01-18 18:31:00,62.6,24.3,30.12,North,359,6.0,0.0,23,0.00,,,0.00,0,WeatherHawk,2013-01-19 01:31:00,
2013-01-18 18:35:00,62.4,25.2,30.12,North,358,6.0,0.0,24,0.00,,,0.00,0,WeatherHawk,2013-01-19 01:35:00,
2013-01-18 18:36:00,62.2,25.0,30.12,North,357,6.0,0.0,24,0.00,,,0.00,0,WeatherHawk,2013-01-19 01:36:00,
2013-01-18 18:37:00,62.2,25.0,30.12,North,354,5.0,7.0,24,0.00,,,0.00,0,WeatherHawk,2013-01-19 01:37:00,
2013-01-18 18:38:00,62.2,25.0,30.12,North,356,6.0,7.0,24,0.00,,,0.00,0,WeatherHawk,2013-01-19 01:38:00,
2013-01-18 18:41:00,62.1,24.9,30.12,North,356,5.0,-999.0,24,0.00,,,0.00,0,WeatherHawk,2013-01-19 01:41:00,
2013-01-18 18:42:00,62.1,24.9,30.12,North,1,5.0,7.0,24,0.00,,,0.00,0,WeatherHawk,2013-01-19 01:42:00,
2013-01-18 18:43:00,62.1,24.9,30.12,North,354,6.0,7.0,24,0.00,,,0.00,1,WeatherHawk,2013-01-19 01:43:00,
2013-01-18 18:44:00,62.1,24.9,30.12,North,357,5.0,7.0,24,0.00,,,0.00,0,WeatherHawk,2013-01-19 01:44:00,
2013-01-18 18:46:00,62.1,24.9,30.12,North,359,5.0,7.0,24,0.00,,,0.00,0,WeatherHawk,2013-01-19 01:46:00,
2013-01-18 18:48:00,62.1,24.9,30.12,North,1,5.0,6.0,24,0.00,,,0.00,0,WeatherHawk,2013-01-19 01:48:00,
2013-01-18 18:50:00,61.9,24.7,30.12,North,2,5.0,6.0,24,0.00,,,0.00,0,WeatherHawk,2013-01-19 01:50:00,
2013-01-18 18:51:00,61.9,24.7,30.12,North,357,4.0,-999.0,24,0.00,,,0.00,0,WeatherHawk,2013-01-19 01:51:00,
2013-01-18 18:55:00,61.9,23.7,30.12,North,355,6.0,6.0,23,0.00,,,0.00,0,WeatherHawk,2013-01-19 01:55:00,
2013-01-18 18:56:00,62.1,23.8,30.12,North,356,5.0,6.0,23,0.00,,,0.00,0,WeatherHawk,2013-01-19 01:56:00,
2013-01-18 18:58:00,62.1,23.8,30.12,North,356,5.0,0.0,23,0.00,,,0.00,0,WeatherHawk,2013-01-19 01:58:00,
2013-01-18 19:01:00,62.1,23.8,30.12,North,356,5.0,-999.0,23,0.00,,,0.00,0,WeatherHawk,2013-01-19 02:01:00,
2013-01-18 19:04:00,61.9,23.7,30.12,North,357,5.0,0.0,23,0.00,,,0.00,0,WeatherHawk,2013-01-19 02:04:00,
2013-01-18 19:07:00,61.9,23.7,30.12,North,1,4.0,0.0,23,0.00,,,0.00,0,WeatherHawk,2013-01-19 02:07:00,
2013-01-18 19:08:00,61.7,23.5,30.12,North,1,5.0,6.0,23,0.00,,,0.00,0,WeatherHawk,2013-01-19 02:08:00,
2013-01-18 19:10:00,61.7,23.5,30.12,North,357,5.0,6.0,23,0.00,,,0.00,0,WeatherHawk,2013-01-19 02:10:00,
2013-01-18 19:11:00,61.7,23.5,30.12,North,359,4.0,-999.0,23,0.00,,,0.00,0,WeatherHawk,2013-01-19 02:11:00,
2013-01-18 19:13:00,61.7,23.5,30.12,North,359,4.0,6.0,23,0.00,,,0.00,0,WeatherHawk,2013-01-19 02:13:00,
2013-01-18 19:16:00,61.7,23.5,30.12,North,357,4.0,6.0,23,0.00,,,0.00,0,WeatherHawk,2013-01-19 02:16:00,
2013-01-18 19:17:00,61.7,23.5,30.12,North,4,5.0,5.0,23,0.00,,,0.00,0,WeatherHawk,2013-01-19 02:17:00,
2013-01-18 19:19:00,61.7,23.5,30.12,North,4,5.0,5.0,23,0.00,,,0.00,0,WeatherHawk,2013-01-19 02:19:00,
2013-01-18 19:22:00,61.9,23.7,30.12,North,1,4.0,5.0,23,0.00,,,0.00,0,WeatherHawk,2013-01-19 02:22:00,
2013-01-18 19:24:00,61.7,22.5,30.12,North,357,4.0,5.0,22,0.00,,,0.00,0,WeatherHawk,2013-01-19 02:24:00,
2013-01-18 19:25:00,61.7,22.5,30.12,North,356,4.0,5.0,22,0.00,,,0.00,0,WeatherHawk,2013-01-19 02:25:00,
2013-01-18 19:27:00,61.7,22.5,30.12,North,356,4.0,5.0,22,0.00,,,0.00,0,WeatherHawk,2013-01-19 02:27:00,
2013-01-18 19:29:00,61.7,22.5,30.12,North,358,4.0,5.0,22,0.00,,,0.00,0,WeatherHawk,2013-01-19 02:29:00,
2013-01-18 19:31:00,61.7,22.5,30.12,North,1,4.0,-999.0,22,0.00,,,0.00,0,WeatherHawk,2013-01-19 02:31:00,
2013-01-18 19:32:00,61.7,22.5,30.12,North,358,4.0,5.0,22,0.00,,,0.00,0,WeatherHawk,2013-01-19 02:32:00,
2013-01-18 19:35:00,61.5,22.3,30.12,North,0,4.0,5.0,22,0.00,,,0.00,0,WeatherHawk,2013-01-19 02:35:00,
2013-01-18 19:36:00,61.5,22.3,30.12,North,356,4.0,5.0,22,0.00,,,0.00,0,WeatherHawk,2013-01-19 02:36:00,
2013-01-18 19:39:00,61.3,22.2,30.12,NNW,348,5.0,0.0,22,0.00,,,0.00,0,WeatherHawk,2013-01-19 02:39:00,
2013-01-18 19:40:00,61.3,23.2,30.12,NNW,346,5.0,0.0,23,0.00,,,0.00,0,WeatherHawk,2013-01-19 02:40:00,
2013-01-18 19:41:00,61.3,23.2,30.12,North,350,5.0,0.0,23,0.00,,,0.00,1,WeatherHawk,2013-01-19 02:41:00,
2013-01-18 19:46:00,61.2,22.0,30.12,NNW,341,5.0,0.0,22,0.00,,,0.00,0,WeatherHawk,2013-01-19 02:46:00,
2013-01-18 19:47:00,61.2,22.0,30.12,NNW,343,5.0,0.0,22,0.00,,,0.00,0,WeatherHawk,2013-01-19 02:47:00,
2013-01-18 19:49:00,61.3,22.2,30.12,NNW,345,5.0,0.0,22,0.00,,,0.00,0,WeatherHawk,2013-01-19 02:49:00,
2013-01-18 19:52:00,61.2,22.0,30.12,NNW,341,4.0,0.0,22,0.00,,,0.00,0,WeatherHawk,2013-01-19 02:52:00,
2013-01-18 19:53:00,61.0,21.9,30.12,NNW,341,4.0,0.0,22,0.00,,,0.00,0,WeatherHawk,2013-01-19 02:53:00,
2013-01-18 19:56:00,60.8,21.7,30.12,NNW,343,5.0,0.0,22,0.00,,,0.00,0,WeatherHawk,2013-01-19 02:56:00,
2013-01-18 19:59:00,61.0,21.9,30.12,NNW,346,5.0,6.0,22,0.00,,,0.00,0,WeatherHawk,2013-01-19 02:59:00,
2013-01-18 20:01:00,61.0,21.9,30.12,NNW,343,5.0,6.0,22,0.00,,,0.00,0,WeatherHawk,2013-01-19 03:01:00,
2013-01-18 20:04:00,60.8,22.8,30.12,North,350,4.0,6.0,23,0.00,,,0.00,0,WeatherHawk,2013-01-19 03:04:00,
2013-01-18 20:06:00,60.8,21.7,30.12,NNW,348,4.0,6.0,22,0.00,,,0.00,0,WeatherHawk,2013-01-19 03:06:00,
2013-01-18 20:07:00,60.6,21.6,30.12,NNW,346,5.0,0.0,22,0.00,,,0.00,0,WeatherHawk,2013-01-19 03:07:00,
2013-01-18 20:11:00,60.6,22.6,30.12,NNW,342,5.0,-999.0,23,0.00,,,0.00,0,WeatherHawk,2013-01-19 03:11:00,
2013-01-18 20:13:00,60.6,22.6,30.12,NNW,342,4.0,0.0,23,0.00,,,0.00,0,WeatherHawk,2013-01-19 03:13:00,
2013-01-18 20:16:00,60.4,22.5,30.12,NNW,344,5.0,0.0,23,0.00,,,0.00,0,WeatherHawk,2013-01-19 03:16:00,
2013-01-18 20:17:00,60.3,22.3,30.12,NNW,344,5.0,0.0,23,0.00,,,0.00,0,WeatherHawk,2013-01-19 03:17:00,
2013-01-18 20:18:00,60.3,22.3,30.12,NNW,343,5.0,0.0,23,0.00,,,0.00,0,WeatherHawk,2013-01-19 03:18:00,
2013-01-18 20:21:00,60.4,22.5,30.12,NNW,343,5.0,0.0,23,0.00,,,0.00,0,WeatherHawk,2013-01-19 03:21:00,
2013-01-18 20:24:00,60.4,22.5,30.12,NNW,331,4.0,0.0,23,0.00,,,0.00,0,WeatherHawk,2013-01-19 03:24:00,
2013-01-18 20:26:00,60.3,22.3,30.12,NNW,338,5.0,-999.0,23,0.00,,,0.00,0,WeatherHawk,2013-01-19 03:26:00,
2013-01-18 20:30:00,60.3,22.3,30.12,NNW,332,4.0,0.0,23,0.00,,,0.00,0,WeatherHawk,2013-01-19 03:30:00,
2013-01-18 20:31:00,60.3,22.3,30.12,NNW,336,4.0,0.0,23,0.00,,,0.00,0,WeatherHawk,2013-01-19 03:31:00,
2013-01-18 20:36:00,60.4,22.5,30.12,NNW,336,4.0,0.0,23,0.00,,,0.00,0,WeatherHawk,2013-01-19 03:36:00,
2013-01-18 20:40:00,60.4,22.5,30.12,NNW,327,4.0,0.0,23,0.00,,,0.00,0,WeatherHawk,2013-01-19 03:40:00,
2013-01-18 20:41:00,60.4,22.5,30.12,NNW,327,4.0,0.0,23,0.00,,,0.00,0,WeatherHawk,2013-01-19 03:41:00,
2013-01-18 20:43:00,60.4,22.5,30.12,NW,323,4.0,0.0,23,0.00,,,0.00,0,WeatherHawk,2013-01-19 03:43:00,
2013-01-18 20:45:00,60.4,22.5,30.12,NNW,327,5.0,0.0,23,0.00,,,0.00,0,WeatherHawk,2013-01-19 03:45:00,
2013-01-18 20:50:00,60.4,22.5,30.12,NW,316,4.0,0.0,23,0.00,,,0.00,0,WeatherHawk,2013-01-19 03:50:00,
2013-01-18 20:51:00,60.4,22.5,30.12,NW,316,4.0,0.0,23,0.00,,,0.00,0,WeatherHawk,2013-01-19 03:51:00,
2013-01-18 20:53:00,60.3,22.3,30.12,NW,315,4.0,0.0,23,0.00,,,0.00,0,WeatherHawk,2013-01-19 03:53:00,
2013-01-18 20:56:00,60.1,22.2,30.13,NW,314,4.0,-999.0,23,0.00,,,0.00,0,WeatherHawk,2013-01-19 03:56:00,
2013-01-18 20:57:00,60.1,22.2,30.13,NW,313,4.0,0.0,23,0.00,,,0.00,0,WeatherHawk,2013-01-19 03:57:00,
2013-01-18 21:02:00,60.1,22.2,30.13,NW,305,4.0,0.0,23,0.00,,,0.00,0,WeatherHawk,2013-01-19 04:02:00,
2013-01-18 21:05:00,60.1,22.2,30.13,WNW,298,4.0,0.0,23,0.00,,,0.00,0,WeatherHawk,2013-01-19 04:05:00,
2013-01-18 21:07:00,59.9,22.0,30.13,WNW,299,4.0,-999.0,23,0.00,,,0.00,0,WeatherHawk,2013-01-19 04:07:00,
2013-01-18 21:12:00,59.5,21.7,30.12,WNW,302,4.0,4.0,23,0.00,,,0.00,0,WeatherHawk,2013-01-19 04:12:00,
2013-01-18 21:17:00,59.5,21.7,30.12,WNW,300,4.0,4.0,23,0.00,,,0.00,0,WeatherHawk,2013-01-19 04:17:00,
2013-01-18 21:18:00,59.5,21.7,30.12,WNW,296,4.0,5.0,23,0.00,,,0.00,0,WeatherHawk,2013-01-19 04:18:00,
2013-01-18 21:21:00,59.5,21.7,30.12,WNW,302,4.0,5.0,23,0.00,,,0.00,0,WeatherHawk,2013-01-19 04:21:00,
2013-01-18 21:22:00,59.4,22.6,30.12,West,275,5.0,-999.0,24,0.00,,,0.00,0,WeatherHawk,2013-01-19 04:22:00,
2013-01-18 21:23:00,59.0,23.2,30.12,West,275,4.0,5.0,25,0.00,,,0.00,0,WeatherHawk,2013-01-19 04:23:00,
2013-01-18 21:26:00,58.1,23.4,30.13,West,268,4.0,5.0,26,0.00,,,0.00,0,WeatherHawk,2013-01-19 04:26:00,
2013-01-18 21:27:00,58.1,23.4,30.13,West,268,4.0,-999.0,26,0.00,,,0.00,0,WeatherHawk,2013-01-19 04:27:00,
2013-01-18 21:30:00,57.2,22.6,30.13,West,260,4.0,5.0,26,0.00,,,0.00,0,WeatherHawk,2013-01-19 04:30:00,
2013-01-18 21:32:00,57.2,22.6,30.13,West,262,4.0,5.0,26,0.00,,,0.00,0,WeatherHawk,2013-01-19 04:32:00,
2013-01-18 21:33:00,57.2,21.7,30.13,West,266,4.0,5.0,25,0.00,,,0.00,0,WeatherHawk,2013-01-19 04:33:00,
2013-01-18 21:35:00,57.4,21.9,30.13,West,263,4.0,5.0,25,0.00,,,0.00,0,WeatherHawk,2013-01-19 04:35:00,
2013-01-18 21:37:00,57.6,21.0,30.13,West,260,4.0,5.0,24,0.00,,,0.00,0,WeatherHawk,2013-01-19 04:37:00,
2013-01-18 21:40:00,57.9,21.4,30.13,WSW,257,5.0,5.0,24,0.00,,,0.00,1,WeatherHawk,2013-01-19 04:40:00,
2013-01-18 21:41:00,57.7,21.2,30.13,WSW,256,4.0,4.0,24,0.00,,,0.00,0,WeatherHawk,2013-01-19 04:41:00,
2013-01-18 21:42:00,57.7,21.2,30.13,WSW,255,4.0,-999.0,24,0.00,,,0.00,0,WeatherHawk,2013-01-19 04:42:00,
2013-01-18 21:47:00,57.4,21.9,30.13,WSW,247,3.0,4.0,25,0.00,,,0.00,0,WeatherHawk,2013-01-19 04:47:00,
2013-01-18 21:49:00,57.0,21.6,30.13,WSW,253,3.0,5.0,25,0.00,,,0.00,0,WeatherHawk,2013-01-19 04:49:00,
2013-01-18 21:52:00,57.0,21.6,30.13,WSW,256,3.0,5.0,25,0.00,,,0.00,0,WeatherHawk,2013-01-19 04:52:00,
2013-01-18 21:55:00,57.0,21.6,30.13,WSW,255,3.0,5.0,25,0.00,,,0.00,0,WeatherHawk,2013-01-19 04:55:00,
2013-01-18 21:57:00,57.0,22.5,30.13,WSW,246,3.0,5.0,26,0.00,,,0.00,0,WeatherHawk,2013-01-19 04:57:00,
2013-01-18 21:58:00,56.8,22.3,30.13,WSW,241,3.0,4.0,26,0.00,,,0.00,0,WeatherHawk,2013-01-19 04:58:00,
2013-01-18 22:03:00,55.9,22.4,30.13,WSW,244,3.0,4.0,27,0.00,,,0.00,0,WeatherHawk,2013-01-19 05:03:00,
2013-01-18 22:04:00,55.9,22.4,30.13,WSW,244,3.0,4.0,27,0.00,,,0.00,0,WeatherHawk,2013-01-19 05:04:00,
2013-01-18 22:07:00,55.8,22.3,30.13,WSW,246,3.0,4.0,27,0.00,,,0.00,0,WeatherHawk,2013-01-19 05:07:00,
2013-01-18 22:09:00,55.8,23.2,30.13,SW,232,2.0,3.0,28,0.00,,,0.00,0,WeatherHawk,2013-01-19 05:09:00,
2013-01-18 22:12:00,55.8,23.2,30.13,WSW,243,2.0,3.0,28,0.00,,,0.00,0,WeatherHawk,2013-01-19 05:12:00,
2013-01-18 22:14:00,55.6,22.1,30.13,West,264,2.0,3.0,27,0.00,,,0.00,0,WeatherHawk,2013-01-19 05:14:00,
2013-01-18 22:17:00,55.8,22.3,30.13,West,270,3.0,3.0,27,0.00,,,0.00,0,WeatherHawk,2013-01-19 05:17:00,
2013-01-18 22:21:00,55.9,22.4,30.13,West,281,3.0,3.0,27,0.00,,,0.00,0,WeatherHawk,2013-01-19 05:21:00,
2013-01-18 22:23:00,55.9,22.4,30.13,West,277,2.0,3.0,27,0.00,,,0.00,0,WeatherHawk,2013-01-19 05:23:00,
2013-01-18 22:24:00,55.9,23.3,30.13,WNW,303,2.0,3.0,28,0.00,,,0.00,0,WeatherHawk,2013-01-19 05:24:00,
2013-01-18 22:26:00,55.8,21.4,30.13,NW,304,3.0,3.0,26,0.00,,,0.00,0,WeatherHawk,2013-01-19 05:26:00,
2013-01-18 22:27:00,55.8,21.4,30.13,NW,304,3.0,3.0,26,0.00,,,0.00,0,WeatherHawk,2013-01-19 05:27:00,
2013-01-18 22:32:00,56.5,21.1,30.13,NNW,327,4.0,4.0,25,0.00,,,0.00,0,WeatherHawk,2013-01-19 05:32:00,
2013-01-18 22:37:00,57.0,20.6,30.13,NNW,343,6.0,6.0,24,0.00,,,0.00,0,WeatherHawk,2013-01-19 05:37:00,
2013-01-18 22:38:00,57.2,20.7,30.13,NNW,342,6.0,6.0,24,0.00,,,0.00,0,WeatherHawk,2013-01-19 05:38:00,
2013-01-18 22:40:00,57.4,20.9,30.13,NNW,343,7.0,7.0,24,0.00,,,0.00,0,WeatherHawk,2013-01-19 05:40:00,
2013-01-18 22:42:00,57.6,21.0,30.13,NNW,340,6.0,-999.0,24,0.00,,,0.00,0,WeatherHawk,2013-01-19 05:42:00,
2013-01-18 22:45:00,57.4,20.9,30.13,NNW,338,5.0,6.0,24,0.00,,,0.00,0,WeatherHawk,2013-01-19 05:45:00,
2013-01-18 22:47:00,56.8,21.4,30.13,NNW,328,5.0,6.0,25,0.00,,,0.00,0,WeatherHawk,2013-01-19 05:47:00,
2013-01-18 22:50:00,56.8,20.4,30.13,NW,318,5.0,7.0,24,0.00,,,0.00,0,WeatherHawk,2013-01-19 05:50:00,
2013-01-18 22:52:00,57.0,20.6,30.13,NW,312,5.0,7.0,24,0.00,,,0.00,0,WeatherHawk,2013-01-19 05:52:00,
2013-01-18 22:54:00,57.0,20.6,30.13,NW,314,5.0,7.0,24,0.00,,,0.00,0,WeatherHawk,2013-01-19 05:54:00,
2013-01-18 22:58:00,56.7,21.2,30.13,NW,307,4.0,5.0,25,0.00,,,0.00,0,WeatherHawk,2013-01-19 05:58:00,
2013-01-18 22:59:00,56.5,21.1,30.13,NW,304,4.0,5.0,25,0.00,,,0.00,0,WeatherHawk,2013-01-19 05:59:00,
2013-01-18 23:02:00,56.3,21.9,30.13,WNW,302,4.0,5.0,26,0.00,,,0.00,0,WeatherHawk,2013-01-19 06:02:00,
2013-01-18 23:05:00,55.9,21.6,30.13,WNW,289,4.0,5.0,26,0.00,,,0.00,0,WeatherHawk,2013-01-19 06:05:00,
2013-01-18 23:07:00,55.8,22.3,30.13,WNW,284,4.0,5.0,27,0.00,,,0.00,0,WeatherHawk,2013-01-19 06:07:00,
2013-01-18 23:08:00,55.6,22.1,30.13,West,278,3.0,4.0,27,0.00,,,0.00,0,WeatherHawk,2013-01-19 06:08:00,
2013-01-18 23:12:00,55.0,22.5,30.13,WNW,282,4.0,4.0,28,0.00,,,0.00,0,WeatherHawk,2013-01-19 06:12:00,
2013-01-18 23:13:00,54.9,22.4,30.13,WNW,283,3.0,4.0,28,0.00,,,0.00,0,WeatherHawk,2013-01-19 06:13:00,
2013-01-18 23:17:00,55.2,20.9,30.13,NW,310,4.0,4.0,26,0.00,,,0.00,0,WeatherHawk,2013-01-19 06:17:00,
2013-01-18 23:19:00,55.6,20.3,30.13,NW,311,4.0,4.0,25,0.00,,,0.00,0,WeatherHawk,2013-01-19 06:19:00,
2013-01-18 23:22:00,56.3,20.9,30.13,NW,310,3.0,4.0,25,0.00,,,0.00,0,WeatherHawk,2013-01-19 06:22:00,
2013-01-18 23:24:00,56.5,21.1,30.13,NW,304,3.0,4.0,25,0.00,,,0.00,0,WeatherHawk,2013-01-19 06:24:00,
2013-01-18 23:27:00,56.3,20.9,30.13,WNW,300,3.0,4.0,25,0.00,,,0.00,0,WeatherHawk,2013-01-19 06:27:00,
2013-01-18 23:28:00,56.3,20.9,30.13,WNW,291,3.0,4.0,25,0.00,,,0.00,0,WeatherHawk,2013-01-19 06:28:00,
2013-01-18 23:29:00,56.3,20.9,30.13,WNW,289,3.0,4.0,25,0.00,,,0.00,0,WeatherHawk,2013-01-19 06:29:00,
2013-01-18 23:32:00,55.9,21.6,30.13,WNW,285,3.0,4.0,26,0.00,,,0.00,0,WeatherHawk,2013-01-19 06:32:00,
2013-01-18 23:33:00,55.8,21.4,30.13,WNW,293,3.0,4.0,26,0.00,,,0.00,0,WeatherHawk,2013-01-19 06:33:00,
2013-01-18 23:35:00,55.8,21.4,30.13,West,277,3.0,4.0,26,0.00,,,0.00,0,WeatherHawk,2013-01-19 06:35:00,
2013-01-18 23:36:00,55.6,21.3,30.13,West,271,3.0,4.0,26,0.00,,,0.00,0,WeatherHawk,2013-01-19 06:36:00,
2013-01-18 23:39:00,55.4,22.0,30.13,West,264,4.0,4.0,27,0.00,,,0.00,0,WeatherHawk,2013-01-19 06:39:00,
2013-01-18 23:40:00,55.2,21.8,30.13,West,260,4.0,4.0,27,0.00,,,0.00,0,WeatherHawk,2013-01-19 06:40:00,
2013-01-18 23:42:00,55.0,21.7,30.13,WSW,258,3.0,4.0,27,0.00,,,0.00,0,WeatherHawk,2013-01-19 06:42:00,
2013-01-18 23:44:00,54.9,21.5,30.13,West,261,4.0,4.0,27,0.00,,,0.00,0,WeatherHawk,2013-01-19 06:44:00,
2013-01-18 23:47:00,54.7,21.4,30.13,West,271,4.0,4.0,27,0.00,,,0.00,0,WeatherHawk,2013-01-19 06:47:00,
2013-01-18 23:48:00,54.9,21.5,30.13,West,274,4.0,4.0,27,0.00,,,0.00,0,WeatherHawk,2013-01-19 06:48:00,
2013-01-18 23:49:00,54.9,21.5,30.13,West,273,4.0,4.0,27,0.00,,,0.00,1,WeatherHawk,2013-01-19 06:49:00,
2013-01-18 23:51:00,55.0,21.7,30.13,WNW,285,3.0,4.0,27,0.00,,,0.00,0,WeatherHawk,2013-01-19 06:51:00,
2013-01-18 23:54:00,55.0,20.8,30.13,WNW,292,3.0,4.0,26,0.00,,,0.00,0,WeatherHawk,2013-01-19 06:54:00,
2013-01-18 23:55:00,55.2,20.9,30.13,NW,305,2.0,4.0,26,0.00,,,0.00,1,WeatherHawk,2013-01-19 06:55:00,